| time (UTC) | temp F | wind direction | speed MPH | gust MPH | rain 1hr in | rain 24hr in | rain mn in | humidity % | barometer mb |
| 20260506005611 | 78 | 149 | 2.0 | 10.0 | 0.00 | 0.00 | 0.00 | 90 | 1007.2 |
| 20260506005510 | 78 | 280 | 2.0 | 10.0 | 0.00 | 0.00 | 0.00 | 90 | 1007.2 |
| 20260506005410 | 78 | 211 | 2.0 | 10.0 | 0.00 | 0.00 | 0.00 | 90 | 1007.2 |
| 20260506005310 | 78 | 204 | 2.0 | 10.0 | 0.00 | 0.00 | 0.00 | 90 | 1007.2 |
| 20260506005239 | 78 | 155 | 2.0 | 10.0 | 0.00 | 0.00 | 0.00 | 90 | 1007.2 |
| 20260506005207 | 78 | 106 | 2.0 | 10.0 | 0.00 | 0.00 | 0.00 | 90 | 1007.2 |
| 20260506005107 | 78 | 197 | 2.0 | 10.0 | 0.00 | 0.00 | 0.00 | 90 | 1007.1 |
| 20260506005007 | 78 | 223 | 2.0 | 10.0 | 0.00 | 0.00 | 0.00 | 90 | 1007.1 |
| 20260506004907 | 78 | 174 | 2.0 | 10.0 | 0.00 | 0.00 | 0.00 | 90 | 1007.1 |
| 20260506004804 | 78 | 129 | 2.0 | 10.0 | 0.00 | 0.00 | 0.00 | 90 | 1007.1 |
| 20260506004739 | 78 | 119 | 2.0 | 10.0 | 0.00 | 0.00 | 0.00 | 90 | 1007.1 |
| 20260506004701 | 78 | 90 | 2.0 | 10.0 | 0.00 | 0.00 | 0.00 | 90 | 1007.1 |
| 20260506004601 | 78 | 150 | 2.0 | 5.0 | 0.00 | 0.00 | 0.00 | 90 | 1007.1 |
| 20260506004501 | 78 | 156 | 2.0 | 5.0 | 0.00 | 0.00 | 0.00 | 90 | 1007.1 |
| 20260506004358 | 78 | 189 | 2.0 | 5.0 | 0.00 | 0.00 | 0.00 | 90 | 1007.0 |
| 20260506004258 | 78 | 139 | 2.0 | 5.0 | 0.00 | 0.00 | 0.00 | 90 | 1007.0 |
| 20260506004238 | 78 | 101 | 2.0 | 5.0 | 0.00 | 0.00 | 0.00 | 90 | 1007.0 |
| 20260506004156 | 78 | 129 | 2.0 | 5.0 | 0.00 | 0.00 | 0.00 | 89 | 1007.0 |
| 20260506004056 | 78 | 214 | 2.0 | 5.0 | 0.00 | 0.00 | 0.00 | 89 | 1007.0 |
| 20260506003955 | 78 | 177 | 2.0 | 5.0 | 0.00 | 0.00 | 0.00 | 89 | 1007.0 |
| 20260506003856 | 78 | 352 | 2.0 | 6.0 | 0.00 | 0.00 | 0.00 | 89 | 1007.0 |
| 20260506003752 | 78 | 120 | 2.0 | 6.0 | 0.00 | 0.00 | 0.00 | 89 | 1007.0 |
| 20260506003740 | 78 | 352 | 2.0 | 6.0 | 0.00 | 0.00 | 0.00 | 89 | 1007.0 |
| 20260506003652 | 78 | 132 | 2.0 | 6.0 | 0.00 | 0.00 | 0.00 | 89 | 1007.0 |
| 20260506003553 | 78 | 74 | 2.0 | 6.0 | 0.00 | 0.00 | 0.00 | 89 | 1007.0 |
| 20260506003451 | 78 | 85 | 2.0 | 6.0 | 0.00 | 0.00 | 0.00 | 89 | 1007.0 |
| 20260506003353 | 78 | 289 | 2.0 | 7.0 | 0.00 | 0.00 | 0.00 | 89 | 1007.0 |
| 20260506003253 | 78 | 178 | 2.0 | 7.0 | 0.00 | 0.00 | 0.00 | 89 | 1007.0 |
| 20260506003239 | 78 | 88 | 2.0 | 7.0 | 0.00 | 0.00 | 0.00 | 89 | 1007.0 |
| 20260506003152 | 78 | 161 | 2.0 | 8.0 | 0.00 | 0.00 | 0.00 | 89 | 1006.9 |
| 20260506003052 | 78 | 226 | 2.0 | 8.0 | 0.00 | 0.00 | 0.00 | 89 | 1006.9 |
| 20260506002952 | 78 | 154 | 2.0 | 8.0 | 0.00 | 0.00 | 0.00 | 89 | 1006.9 |
| 20260506002852 | 78 | 184 | 2.0 | 8.0 | 0.00 | 0.00 | 0.00 | 89 | 1006.9 |
| 20260506002753 | 78 | 197 | 2.0 | 8.0 | 0.00 | 0.00 | 0.00 | 89 | 1006.9 |
| 20260506002739 | 78 | 121 | 2.0 | 8.0 | 0.00 | 0.00 | 0.00 | 89 | 1006.9 |
| 20260506002652 | 78 | 247 | 2.0 | 8.0 | 0.00 | 0.00 | 0.00 | 89 | 1007.0 |
| 20260506002552 | 78 | 173 | 2.0 | 8.0 | 0.00 | 0.00 | 0.00 | 89 | 1007.0 |
| 20260506002451 | 78 | 123 | 3.0 | 8.0 | 0.00 | 0.00 | 0.00 | 89 | 1007.0 |
| 20260506002351 | 78 | 220 | 2.0 | 8.0 | 0.00 | 0.00 | 0.00 | 89 | 1007.0 |
| 20260506002251 | 78 | 187 | 2.0 | 8.0 | 0.00 | 0.00 | 0.00 | 89 | 1006.9 |
| 20260506002239 | 78 | 132 | 2.0 | 8.0 | 0.00 | 0.00 | 0.00 | 89 | 1006.9 |
| 20260506002151 | 78 | 174 | 2.0 | 6.0 | 0.00 | 0.00 | 0.00 | 89 | 1007.0 |
| 20260506002051 | 78 | 102 | 2.0 | 8.0 | 0.00 | 0.00 | 0.00 | 89 | 1007.0 |
| 20260506001948 | 78 | 156 | 2.0 | 8.0 | 0.00 | 0.00 | 0.00 | 89 | 1007.0 |
| 20260506001848 | 78 | 50 | 2.0 | 8.0 | 0.00 | 0.00 | 0.00 | 89 | 1007.0 |
| 20260506001745 | 78 | 214 | 2.0 | 8.0 | 0.00 | 0.00 | 0.00 | 89 | 1007.1 |
| 20260506001739 | 78 | 200 | 2.0 | 8.0 | 0.00 | 0.00 | 0.00 | 89 | 1007.1 |
| 20260506001645 | 78 | 87 | 3.0 | 8.0 | 0.00 | 0.00 | 0.00 | 89 | 1007.1 |
| 20260506001545 | 78 | 83 | 3.0 | 8.0 | 0.00 | 0.00 | 0.00 | 89 | 1007.1 |
| 20260506001442 | 78 | 45 | 3.0 | 8.0 | 0.00 | 0.00 | 0.00 | 89 | 1007.1 |
| 20260506001340 | 78 | 208 | 3.0 | 8.0 | 0.00 | 0.00 | 0.00 | 89 | 1007.1 |
| 20260506001238 | 78 | 151 | 3.0 | 8.0 | 0.00 | 0.00 | 0.00 | 89 | 1007.1 |
| 20260506001138 | 78 | 177 | 2.0 | 8.0 | 0.00 | 0.00 | 0.00 | 89 | 1007.1 |
| 20260506001038 | 78 | 120 | 2.0 | 7.0 | 0.00 | 0.00 | 0.00 | 89 | 1007.1 |
| 20260506000936 | 78 | 113 | 2.0 | 7.0 | 0.00 | 0.00 | 0.00 | 88 | 1007.0 |
| 20260506000836 | 78 | 126 | 2.0 | 7.0 | 0.00 | 0.00 | 0.00 | 88 | 1007.1 |
| 20260506000737 | 79 | 130 | 2.0 | 6.0 | 0.00 | 0.00 | 0.00 | 88 | 1007.1 |
| 20260506000731 | 79 | 232 | 2.0 | 7.0 | 0.00 | 0.00 | 0.00 | 88 | 1007.1 |
| 20260506000630 | 79 | 63 | 2.0 | 7.0 | 0.00 | 0.00 | 0.00 | 88 | 1007.1 |
| 20260506000530 | 79 | 89 | 2.0 | 7.0 | 0.00 | 0.00 | 0.00 | 88 | 1007.0 |
| 20260506000431 | 79 | 157 | 2.0 | 7.0 | 0.00 | 0.00 | 0.00 | 88 | 1007.0 |
| 20260506000330 | 79 | 177 | 2.0 | 7.0 | 0.00 | 0.00 | 0.00 | 88 | 1007.1 |
| 20260506000239 | 79 | 0 | 2.0 | 7.0 | 0.00 | 0.00 | 0.00 | 88 | 1007.1 |
| 20260506000226 | 79 | 283 | 2.0 | 7.0 | 0.00 | 0.00 | 0.00 | 88 | 1007.1 |
| 20260506000125 | 79 | 91 | 2.0 | 7.0 | 0.00 | 0.00 | 0.00 | 88 | 1007.1 |
| 20260506000024 | 79 | 269 | 3.0 | 7.0 | 0.00 | 0.00 | 0.00 | 88 | 1007.0 |
| 20260505235923 | 79 | 72 | 3.0 | 7.0 | 0.00 | 0.00 | 0.00 | 88 | 1007.0 |
| 20260505235820 | 79 | 174 | 3.0 | 8.0 | 0.00 | 0.00 | 0.00 | 88 | 1007.0 |
| 20260505235738 | 79 | 164 | 3.0 | 8.0 | 0.00 | 0.00 | 0.00 | 88 | 1007.1 |
| 20260505235720 | 79 | 184 | 3.0 | 8.0 | 0.00 | 0.00 | 0.00 | 88 | 1007.1 |
| 20260505235620 | 79 | 42 | 2.0 | 8.0 | 0.00 | 0.00 | 0.00 | 88 | 1007.0 |
| 20260505235520 | 79 | 174 | 2.0 | 8.0 | 0.00 | 0.00 | 0.00 | 88 | 1007.1 |
| 20260505235420 | 79 | 216 | 2.0 | 8.0 | 0.00 | 0.00 | 0.00 | 88 | 1007.0 |
| 20260505235320 | 79 | 96 | 2.0 | 9.0 | 0.00 | 0.00 | 0.00 | 88 | 1007.0 |
| 20260505235239 | 79 | 109 | 2.0 | 9.0 | 0.00 | 0.00 | 0.00 | 88 | 1007.0 |
| 20260505235217 | 79 | 97 | 2.0 | 9.0 | 0.00 | 0.00 | 0.00 | 88 | 1007.0 |
| 20260505235107 | 79 | 95 | 2.0 | 9.0 | 0.00 | 0.00 | 0.00 | 88 | 1007.0 |
| 20260505235008 | 79 | 163 | 2.0 | 9.0 | 0.00 | 0.00 | 0.00 | 88 | 1007.0 |
| 20260505234907 | 79 | 88 | 2.0 | 9.0 | 0.00 | 0.00 | 0.00 | 88 | 1007.0 |
| 20260505234808 | 79 | 161 | 2.0 | 9.0 | 0.00 | 0.00 | 0.00 | 88 | 1007.0 |
| 20260505234738 | 79 | 315 | 2.0 | 9.0 | 0.00 | 0.00 | 0.00 | 88 | 1007.0 |
| 20260505234707 | 79 | 124 | 2.0 | 9.0 | 0.00 | 0.00 | 0.00 | 88 | 1007.0 |
| 20260505234608 | 79 | 217 | 3.0 | 9.0 | 0.00 | 0.00 | 0.00 | 88 | 1007.0 |
| 20260505234508 | 79 | 164 | 3.0 | 9.0 | 0.00 | 0.00 | 0.00 | 88 | 1007.0 |
| 20260505234406 | 79 | 133 | 3.0 | 9.0 | 0.00 | 0.00 | 0.00 | 87 | 1007.0 |
| 20260505234302 | 79 | 93 | 2.0 | 8.0 | 0.00 | 0.00 | 0.00 | 87 | 1007.0 |
| 20260505234238 | 79 | 169 | 2.0 | 8.0 | 0.00 | 0.00 | 0.00 | 87 | 1007.0 |
| 20260505234202 | 79 | 163 | 3.0 | 8.0 | 0.00 | 0.00 | 0.00 | 87 | 1007.0 |
| 20260505234056 | 79 | 81 | 2.0 | 8.0 | 0.00 | 0.00 | 0.00 | 87 | 1007.1 |
| 20260505233956 | 79 | 184 | 3.0 | 8.0 | 0.00 | 0.00 | 0.00 | 87 | 1007.1 |
| 20260505233856 | 79 | 86 | 3.0 | 8.0 | 0.00 | 0.00 | 0.00 | 87 | 1007.0 |
| 20260505233756 | 79 | 171 | 3.0 | 8.0 | 0.00 | 0.00 | 0.00 | 87 | 1007.1 |
| 20260505233736 | 79 | 161 | 3.0 | 8.0 | 0.00 | 0.00 | 0.00 | 87 | 1007.0 |
| 20260505233655 | 79 | 185 | 3.0 | 8.0 | 0.00 | 0.00 | 0.00 | 87 | 1007.0 |
| 20260505233557 | 79 | 132 | 3.0 | 7.0 | 0.00 | 0.00 | 0.00 | 87 | 1007.0 |
| 20260505233503 | 79 | 244 | 2.0 | 7.0 | 0.00 | 0.00 | 0.00 | 87 | 1007.1 |
| 20260505233455 | 79 | 83 | 3.0 | 7.0 | 0.00 | 0.00 | 0.00 | 87 | 1007.0 |
| 20260505233355 | 79 | 211 | 3.0 | 7.0 | 0.00 | 0.00 | 0.00 | 87 | 1007.0 |
| 20260505233343 | 79 | 110 | 2.0 | 7.0 | 0.00 | 0.00 | 0.00 | 87 | 1007.1 |
| 20260505233155 | 79 | 147 | 2.0 | 7.0 | 0.00 | 0.00 | 0.00 | 87 | 1007.1 |
| 20260505233057 | 79 | 205 | 3.0 | 8.0 | 0.00 | 0.00 | 0.00 | 87 | 1007.0 |
| 20260505233003 | 79 | 137 | 2.0 | 8.0 | 0.00 | 0.00 | 0.00 | 87 | 1007.1 |
| 20260505232956 | 79 | 175 | 2.0 | 8.0 | 0.00 | 0.00 | 0.00 | 87 | 1007.1 |
| 20260505232856 | 79 | 118 | 2.0 | 8.0 | 0.00 | 0.00 | 0.00 | 87 | 1007.0 |
| 20260505232842 | 79 | 132 | 2.0 | 8.0 | 0.00 | 0.00 | 0.00 | 87 | 1007.1 |
| 20260505232656 | 79 | 159 | 2.0 | 8.0 | 0.00 | 0.00 | 0.00 | 87 | 1007.1 |
| 20260505232556 | 79 | 155 | 2.0 | 8.0 | 0.00 | 0.00 | 0.00 | 87 | 1007.1 |
| 20260505232456 | 79 | 294 | 2.0 | 8.0 | 0.00 | 0.00 | 0.00 | 87 | 1007.1 |
| 20260505232356 | 79 | 235 | 2.0 | 8.0 | 0.00 | 0.00 | 0.00 | 87 | 1007.1 |
| 20260505232256 | 79 | 356 | 2.0 | 8.0 | 0.00 | 0.00 | 0.00 | 87 | 1007.1 |
| 20260505232237 | 79 | 272 | 2.0 | 8.0 | 0.00 | 0.00 | 0.00 | 87 | 1007.1 |
| 20260505232156 | 79 | 108 | 2.0 | 8.0 | 0.00 | 0.00 | 0.00 | 87 | 1007.1 |
| 20260505232056 | 79 | 63 | 2.0 | 8.0 | 0.00 | 0.00 | 0.00 | 87 | 1007.2 |
| 20260505231957 | 79 | 183 | 2.0 | 8.0 | 0.00 | 0.00 | 0.00 | 87 | 1007.1 |
| 20260505231952 | 79 | 201 | 2.0 | 7.0 | 0.00 | 0.00 | 0.00 | 87 | 1007.2 |
| 20260505231857 | 79 | 92 | 2.0 | 8.0 | 0.00 | 0.00 | 0.00 | 87 | 1007.2 |
| 20260505231839 | 79 | 149 | 2.0 | 7.0 | 0.00 | 0.00 | 0.00 | 87 | 1007.2 |
| 20260505231653 | 79 | 190 | 2.0 | 7.0 | 0.00 | 0.00 | 0.00 | 87 | 1007.2 |
| 20260505231553 | 79 | 194 | 2.0 | 10.0 | 0.00 | 0.00 | 0.00 | 87 | 1007.2 |
| 20260505231453 | 79 | 94 | 2.0 | 10.0 | 0.00 | 0.00 | 0.00 | 87 | 1007.2 |
| 20260505231354 | 79 | 130 | 2.0 | 10.0 | 0.00 | 0.00 | 0.00 | 87 | 1007.1 |
| 20260505231253 | 79 | 15 | 3.0 | 10.0 | 0.00 | 0.00 | 0.00 | 87 | 1007.1 |
| 20260505231234 | 79 | 255 | 3.0 | 10.0 | 0.00 | 0.00 | 0.00 | 87 | 1007.1 |
| 20260505231153 | 79 | 0 | 3.0 | 10.0 | 0.00 | 0.00 | 0.00 | 87 | 1007.1 |
| 20260505231053 | 79 | 203 | 3.0 | 10.0 | 0.00 | 0.00 | 0.00 | 87 | 1007.1 |
| 20260505230954 | 79 | 313 | 3.0 | 10.0 | 0.00 | 0.00 | 0.00 | 87 | 1007.1 |
| 20260505230853 | 79 | 198 | 3.0 | 10.0 | 0.00 | 0.00 | 0.00 | 86 | 1007.1 |
| 20260505230753 | 79 | 107 | 3.0 | 10.0 | 0.00 | 0.00 | 0.00 | 86 | 1007.1 |
| 20260505230733 | 79 | 170 | 3.0 | 10.0 | 0.00 | 0.00 | 0.00 | 86 | 1007.1 |
| 20260505230653 | 79 | 171 | 3.0 | 10.0 | 0.00 | 0.00 | 0.00 | 86 | 1007.1 |
| 20260505230451 | 80 | 185 | 3.0 | 9.0 | 0.00 | 0.00 | 0.00 | 86 | 1007.2 |
| 20260505230351 | 80 | 191 | 3.0 | 12.0 | 0.00 | 0.00 | 0.00 | 86 | 1007.2 |
| 20260505230251 | 80 | 122 | 3.0 | 12.0 | 0.00 | 0.00 | 0.00 | 86 | 1007.1 |
| 20260505230234 | 80 | 200 | 3.0 | 12.0 | 0.00 | 0.00 | 0.00 | 86 | 1007.1 |
| 20260505230214 | 80 | 199 | 3.0 | 12.0 | 0.00 | 0.00 | 0.00 | 86 | 1007.2 |
| 20260505230151 | 80 | 107 | 3.0 | 12.0 | 0.00 | 0.00 | 0.00 | 86 | 1007.1 |
| 20260505225950 | 80 | 157 | 3.0 | 12.0 | 0.00 | 0.00 | 0.00 | 86 | 1007.2 |
| 20260505225850 | 80 | 238 | 3.0 | 12.0 | 0.00 | 0.00 | 0.00 | 86 | 1007.2 |
| 20260505225840 | 80 | 233 | 3.0 | 12.0 | 0.00 | 0.00 | 0.00 | 86 | 1007.2 |
| 20260505225648 | 80 | 269 | 3.0 | 12.0 | 0.00 | 0.00 | 0.00 | 86 | 1007.2 |
| 20260505225548 | 80 | 136 | 3.0 | 12.0 | 0.00 | 0.00 | 0.00 | 86 | 1007.2 |
| 20260505225448 | 80 | 122 | 3.0 | 12.0 | 0.00 | 0.00 | 0.00 | 85 | 1007.2 |
| 20260505225345 | 80 | 142 | 3.0 | 9.0 | 0.00 | 0.00 | 0.00 | 85 | 1007.2 |
| 20260505225242 | 80 | 132 | 2.0 | 9.0 | 0.00 | 0.00 | 0.00 | 85 | 1007.2 |
| 20260505225232 | 80 | 128 | 2.0 | 7.0 | 0.00 | 0.00 | 0.00 | 85 | 1007.2 |
| 20260505225210 | 80 | 170 | 2.0 | 8.0 | 0.00 | 0.00 | 0.00 | 84 | 1007.2 |
| 20260505225142 | 80 | 150 | 2.0 | 6.0 | 0.00 | 0.00 | 0.00 | 85 | 1007.2 |
| 20260505225052 | 80 | 10 | 2.0 | 6.0 | 0.00 | 0.00 | 0.00 | 85 | 1007.2 |
| 20260505224940 | 80 | 180 | 2.0 | 6.0 | 0.00 | 0.00 | 0.00 | 84 | 1007.2 |
| 20260505224839 | 80 | 198 | 2.0 | 6.0 | 0.00 | 0.00 | 0.00 | 84 | 1007.2 |
| 20260505224831 | 80 | 166 | 2.0 | 8.0 | 0.00 | 0.00 | 0.00 | 84 | 1007.2 |
| 20260505224636 | 80 | 186 | 3.0 | 8.0 | 0.00 | 0.00 | 0.00 | 84 | 1007.2 |
| 20260505224532 | 80 | 257 | 3.0 | 8.0 | 0.00 | 0.00 | 0.00 | 85 | 1007.2 |
| 20260505224430 | 80 | 218 | 3.0 | 8.0 | 0.00 | 0.00 | 0.00 | 85 | 1007.2 |
| 20260505224329 | 80 | 245 | 2.0 | 8.0 | 0.00 | 0.00 | 0.00 | 85 | 1007.2 |
| 20260505224227 | 80 | 163 | 2.0 | 8.0 | 0.00 | 0.00 | 0.00 | 84 | 1007.2 |
| 20260505224124 | 80 | 76 | 2.0 | 8.0 | 0.00 | 0.00 | 0.00 | 84 | 1007.2 |
| 20260505224021 | 80 | 185 | 3.0 | 8.0 | 0.00 | 0.00 | 0.00 | 84 | 1007.2 |
| 20260505223918 | 81 | 103 | 2.0 | 8.0 | 0.00 | 0.00 | 0.00 | 84 | 1007.2 |
| 20260505223820 | 81 | 194 | 2.0 | 8.0 | 0.00 | 0.00 | 0.00 | 84 | 1007.2 |
| 20260505223725 | 81 | 168 | 2.0 | 8.0 | 0.00 | 0.00 | 0.00 | 84 | 1007.2 |
| 20260505223720 | 81 | 161 | 2.0 | 8.0 | 0.00 | 0.00 | 0.00 | 84 | 1007.2 |
| 20260505223615 | 81 | 120 | 2.0 | 8.0 | 0.00 | 0.00 | 0.00 | 84 | 1007.3 |
| 20260505223457 | 81 | 148 | 2.0 | 6.0 | 0.00 | 0.00 | 0.00 | 83 | 1007.2 |
| 20260505223345 | 81 | 159 | 2.0 | 7.0 | 0.00 | 0.00 | 0.00 | 83 | 1007.2 |
| 20260505223244 | 81 | 74 | 2.0 | 8.0 | 0.00 | 0.00 | 0.00 | 83 | 1007.2 |
| 20260505223223 | 81 | 113 | 2.0 | 8.0 | 0.00 | 0.00 | 0.00 | 83 | 1007.2 |
| 20260505223144 | 81 | 157 | 2.0 | 8.0 | 0.00 | 0.00 | 0.00 | 83 | 1007.2 |
| 20260505223045 | 81 | 113 | 3.0 | 10.0 | 0.00 | 0.00 | 0.00 | 82 | 1007.3 |
| 20260505222947 | 81 | 157 | 3.0 | 10.0 | 0.00 | 0.00 | 0.00 | 82 | 1007.3 |
| 20260505222833 | 81 | 346 | 3.0 | 10.0 | 0.00 | 0.00 | 0.00 | 81 | 1007.3 |
| 20260505222730 | 81 | 194 | 3.0 | 10.0 | 0.00 | 0.00 | 0.00 | 81 | 1007.3 |
| 20260505222722 | 81 | 185 | 3.0 | 10.0 | 0.00 | 0.00 | 0.00 | 81 | 1007.3 |
| 20260505222630 | 81 | 165 | 3.0 | 10.0 | 0.00 | 0.00 | 0.00 | 81 | 1007.3 |
| 20260505222530 | 81 | 63 | 3.0 | 10.0 | 0.00 | 0.00 | 0.00 | 81 | 1007.3 |
| 20260505222430 | 81 | 190 | 3.0 | 10.0 | 0.00 | 0.00 | 0.00 | 81 | 1007.3 |
| 20260505222324 | 81 | 211 | 3.0 | 10.0 | 0.00 | 0.00 | 0.00 | 81 | 1007.3 |
| 20260505222224 | 81 | 161 | 2.0 | 10.0 | 0.00 | 0.00 | 0.00 | 81 | 1007.3 |
| 20260505222124 | 81 | 174 | 2.0 | 10.0 | 0.00 | 0.00 | 0.00 | 81 | 1007.3 |
| 20260505222024 | 81 | 166 | 3.0 | 9.0 | 0.00 | 0.00 | 0.00 | 81 | 1007.3 |
| 20260505221924 | 81 | 114 | 2.0 | 9.0 | 0.00 | 0.00 | 0.00 | 81 | 1007.3 |
| 20260505221826 | 81 | 209 | 3.0 | 9.0 | 0.00 | 0.00 | 0.00 | 81 | 1007.3 |
| 20260505221721 | 81 | 240 | 3.0 | 9.0 | 0.00 | 0.00 | 0.00 | 81 | 1007.3 |
| 20260505221621 | 81 | 203 | 3.0 | 9.0 | 0.00 | 0.00 | 0.00 | 81 | 1007.3 |
| 20260505221521 | 81 | 147 | 3.0 | 9.0 | 0.00 | 0.00 | 0.00 | 81 | 1007.3 |
| 20260505221427 | 81 | 196 | 3.0 | 9.0 | 0.00 | 0.00 | 0.00 | 81 | 1007.2 |
| 20260505221421 | 81 | 246 | 3.0 | 9.0 | 0.00 | 0.00 | 0.00 | 82 | 1007.3 |
| 20260505221321 | 81 | 93 | 3.0 | 9.0 | 0.00 | 0.00 | 0.00 | 81 | 1007.2 |
| 20260505221311 | 81 | 320 | 3.0 | 9.0 | 0.00 | 0.00 | 0.00 | 81 | 1007.2 |
| 20260505221146 | 81 | 159 | 2.0 | 8.0 | 0.00 | 0.00 | 0.00 | 81 | 1007.2 |
| 20260505221121 | 81 | 117 | 3.0 | 9.0 | 0.00 | 0.00 | 0.00 | 81 | 1007.2 |
| 20260505221032 | 81 | 172 | 3.0 | 8.0 | 0.00 | 0.00 | 0.00 | 81 | 1007.2 |
| 20260505220922 | 81 | 123 | 3.0 | 8.0 | 0.00 | 0.00 | 0.00 | 81 | 1007.3 |
| 20260505220822 | 81 | 157 | 2.0 | 8.0 | 0.00 | 0.00 | 0.00 | 81 | 1007.2 |
| 20260505220811 | 81 | 188 | 2.0 | 8.0 | 0.00 | 0.00 | 0.00 | 81 | 1007.2 |
| 20260505220621 | 81 | 249 | 2.0 | 8.0 | 0.00 | 0.00 | 0.00 | 82 | 1007.2 |
| 20260505220521 | 81 | 188 | 2.0 | 7.0 | 0.00 | 0.00 | 0.00 | 82 | 1007.2 |
| 20260505220428 | 81 | 129 | 2.0 | 6.0 | 0.00 | 0.00 | 0.00 | 83 | 1007.2 |
| 20260505220421 | 81 | 201 | 2.0 | 7.0 | 0.00 | 0.00 | 0.00 | 82 | 1007.2 |
| 20260505220321 | 81 | 129 | 2.0 | 6.0 | 0.00 | 0.00 | 0.00 | 82 | 1007.2 |
| 20260505220311 | 81 | 192 | 2.0 | 6.0 | 0.00 | 0.00 | 0.00 | 83 | 1007.2 |
| 20260505220122 | 81 | 160 | 2.0 | 6.0 | 0.00 | 0.00 | 0.00 | 83 | 1007.3 |
| 20260505220015 | 80 | 264 | 2.0 | 6.0 | 0.00 | 0.00 | 0.00 | 83 | 1007.3 |
| 20260505215915 | 80 | 197 | 2.0 | 6.0 | 0.00 | 0.00 | 0.00 | 84 | 1007.4 |
| 20260505215812 | 80 | 127 | 2.0 | 6.0 | 0.00 | 0.00 | 0.00 | 84 | 1007.4 |
| 20260505215712 | 80 | 219 | 2.0 | 7.0 | 0.00 | 0.00 | 0.00 | 84 | 1007.4 |
| 20260505215703 | 80 | 174 | 2.0 | 7.0 | 0.00 | 0.00 | 0.00 | 84 | 1007.4 |
| 20260505215612 | 80 | 346 | 2.0 | 7.0 | 0.00 | 0.00 | 0.00 | 84 | 1007.4 |
| 20260505215512 | 80 | 157 | 2.0 | 7.0 | 0.00 | 0.00 | 0.00 | 84 | 1007.5 |
| 20260505215413 | 80 | 148 | 2.0 | 7.0 | 0.00 | 0.00 | 0.00 | 84 | 1007.5 |
| 20260505215313 | 80 | 180 | 2.0 | 7.0 | 0.00 | 0.00 | 0.00 | 84 | 1007.5 |
| 20260505215213 | 80 | 95 | 3.0 | 7.0 | 0.00 | 0.00 | 0.00 | 85 | 1007.5 |
| 20260505215203 | 80 | 83 | 3.0 | 7.0 | 0.00 | 0.00 | 0.00 | 85 | 1007.5 |
| 20260505215113 | 80 | 93 | 2.0 | 7.0 | 0.00 | 0.00 | 0.00 | 85 | 1007.5 |
| 20260505215013 | 80 | 233 | 3.0 | 7.0 | 0.00 | 0.00 | 0.00 | 85 | 1007.5 |
| 20260505214913 | 80 | 200 | 3.0 | 7.0 | 0.00 | 0.00 | 0.00 | 85 | 1007.5 |
| 20260505214813 | 80 | 286 | 3.0 | 9.0 | 0.00 | 0.00 | 0.00 | 85 | 1007.5 |
| 20260505214713 | 80 | 182 | 3.0 | 9.0 | 0.00 | 0.00 | 0.00 | 85 | 1007.5 |
| 20260505214703 | 80 | 76 | 3.0 | 9.0 | 0.00 | 0.00 | 0.00 | 85 | 1007.5 |
| 20260505214613 | 80 | 180 | 3.0 | 9.0 | 0.00 | 0.00 | 0.00 | 85 | 1007.5 |
| 20260505214509 | 80 | 153 | 3.0 | 9.0 | 0.00 | 0.00 | 0.00 | 85 | 1007.5 |
| 20260505214409 | 80 | 81 | 3.0 | 9.0 | 0.00 | 0.00 | 0.00 | 85 | 1007.6 |
| 20260505214307 | 80 | 171 | 3.0 | 9.0 | 0.00 | 0.00 | 0.00 | 85 | 1007.7 |
| 20260505214204 | 80 | 144 | 3.0 | 9.0 | 0.00 | 0.00 | 0.00 | 85 | 1007.7 |
| 20260505214040 | 80 | 181 | 2.0 | 9.0 | 0.00 | 0.00 | 0.00 | 84 | 1007.7 |
| 20260505213937 | 80 | 192 | 2.0 | 9.0 | 0.00 | 0.00 | 0.00 | 84 | 1007.7 |
| 20260505213825 | 81 | 161 | 2.0 | 9.0 | 0.00 | 0.00 | 0.00 | 84 | 1007.7 |
| 20260505213716 | 81 | 86 | 2.0 | 6.0 | 0.00 | 0.00 | 0.00 | 84 | 1007.7 |
| 20260505213654 | 81 | 139 | 2.0 | 7.0 | 0.00 | 0.00 | 0.00 | 84 | 1007.7 |
| 20260505213558 | 81 | 88 | 2.0 | 7.0 | 0.00 | 0.00 | 0.00 | 84 | 1007.7 |
| 20260505213455 | 81 | 148 | 2.0 | 7.0 | 0.00 | 0.00 | 0.00 | 84 | 1007.7 |
| 20260505213356 | 81 | 191 | 2.0 | 7.0 | 0.00 | 0.00 | 0.00 | 84 | 1007.7 |
| 20260505213244 | 81 | 209 | 2.0 | 7.0 | 0.00 | 0.00 | 0.00 | 84 | 1007.7 |
| 20260505213140 | 81 | 76 | 2.0 | 7.0 | 0.00 | 0.00 | 0.00 | 84 | 1007.7 |
| 20260505213027 | 81 | 181 | 3.0 | 7.0 | 0.00 | 0.00 | 0.00 | 84 | 1007.7 |
| 20260505212927 | 81 | 143 | 3.0 | 7.0 | 0.00 | 0.00 | 0.00 | 83 | 1007.7 |
| 20260505212828 | 81 | 325 | 3.0 | 7.0 | 0.00 | 0.00 | 0.00 | 83 | 1007.7 |
| 20260505212719 | 81 | 182 | 3.0 | 7.0 | 0.00 | 0.00 | 0.00 | 83 | 1007.7 |
| 20260505212624 | 81 | 154 | 3.0 | 7.0 | 0.00 | 0.00 | 0.00 | 83 | 1007.7 |
| 20260505212619 | 81 | 90 | 3.0 | 7.0 | 0.00 | 0.00 | 0.00 | 83 | 1007.7 |
| 20260505212513 | 81 | 59 | 3.0 | 7.0 | 0.00 | 0.00 | 0.00 | 83 | 1007.7 |
| 20260505212412 | 81 | 190 | 2.0 | 7.0 | 0.00 | 0.00 | 0.00 | 83 | 1007.7 |
| 20260505212310 | 81 | 160 | 2.0 | 7.0 | 0.00 | 0.00 | 0.00 | 83 | 1007.7 |
| 20260505212203 | 81 | 147 | 2.0 | 7.0 | 0.00 | 0.00 | 0.00 | 83 | 1007.7 |
| 20260505212121 | 81 | 175 | 2.0 | 8.0 | 0.00 | 0.00 | 0.00 | 83 | 1007.7 |
| 20260505212101 | 81 | 17 | 2.0 | 8.0 | 0.00 | 0.00 | 0.00 | 83 | 1007.7 |
| 20260505211958 | 81 | 205 | 2.0 | 8.0 | 0.00 | 0.00 | 0.00 | 83 | 1007.7 |
| 20260505211858 | 82 | 143 | 2.0 | 8.0 | 0.00 | 0.00 | 0.00 | 83 | 1007.8 |
| 20260505211758 | 82 | 120 | 2.0 | 8.0 | 0.00 | 0.00 | 0.00 | 83 | 1007.8 |
| 20260505211652 | 82 | 120 | 2.0 | 8.0 | 0.00 | 0.00 | 0.00 | 83 | 1007.8 |
| 20260505211612 | 82 | 160 | 2.0 | 8.0 | 0.00 | 0.00 | 0.00 | 83 | 1007.8 |
| 20260505211552 | 82 | 102 | 2.0 | 8.0 | 0.00 | 0.00 | 0.00 | 83 | 1007.8 |
| 20260505211452 | 82 | 0 | 2.0 | 8.0 | 0.00 | 0.00 | 0.00 | 82 | 1007.8 |
| 20260505211349 | 82 | 356 | 2.0 | 8.0 | 0.00 | 0.00 | 0.00 | 82 | 1007.8 |
| 20260505211331 | 82 | 80 | 2.0 | 8.0 | 0.00 | 0.00 | 0.00 | 82 | 1007.9 |
| 20260505211249 | 82 | 108 | 2.0 | 8.0 | 0.00 | 0.00 | 0.00 | 82 | 1007.9 |
| 20260505211215 | 82 | 223 | 2.0 | 8.0 | 0.00 | 0.00 | 0.00 | 82 | 1007.9 |
| 20260505211043 | 82 | 198 | 2.0 | 8.0 | 0.00 | 0.00 | 0.00 | 82 | 1007.9 |
| 20260505210941 | 82 | 116 | 2.0 | 7.0 | 0.00 | 0.00 | 0.00 | 82 | 1007.9 |
| 20260505210841 | 82 | 212 | 2.0 | 7.0 | 0.00 | 0.00 | 0.00 | 82 | 1007.9 |
| 20260505210737 | 82 | 142 | 2.0 | 7.0 | 0.00 | 0.00 | 0.00 | 82 | 1007.9 |
| 20260505210629 | 82 | 124 | 2.0 | 7.0 | 0.00 | 0.00 | 0.00 | 81 | 1007.9 |
| 20260505210606 | 82 | 87 | 2.0 | 7.0 | 0.00 | 0.00 | 0.00 | 81 | 1007.9 |
| 20260505210529 | 82 | 247 | 2.0 | 6.0 | 0.00 | 0.00 | 0.00 | 81 | 1007.9 |
| 20260505210428 | 82 | 177 | 2.0 | 6.0 | 0.00 | 0.00 | 0.00 | 81 | 1007.9 |
| 20260505210329 | 82 | 138 | 2.0 | 6.0 | 0.00 | 0.00 | 0.00 | 81 | 1007.9 |
| 20260505210228 | 82 | 107 | 2.0 | 6.0 | 0.00 | 0.00 | 0.00 | 81 | 1007.9 |
| 20260505210128 | 82 | 218 | 2.0 | 6.0 | 0.00 | 0.00 | 0.00 | 81 | 1007.9 |
| 20260505210106 | 82 | 217 | 2.0 | 6.0 | 0.00 | 0.00 | 0.00 | 81 | 1007.9 |
| 20260505210026 | 82 | 253 | 2.0 | 6.0 | 0.00 | 0.00 | 0.00 | 82 | 1008.0 |
| 20260505205926 | 81 | 147 | 2.0 | 6.0 | 0.00 | 0.00 | 0.00 | 82 | 1008.0 |
| 20260505205822 | 81 | 68 | 2.0 | 7.0 | 0.00 | 0.00 | 0.00 | 82 | 1008.1 |
| 20260505205722 | 81 | 189 | 2.0 | 7.0 | 0.00 | 0.00 | 0.00 | 81 | 1008.1 |
| 20260505205622 | 81 | 220 | 2.0 | 7.0 | 0.00 | 0.00 | 0.00 | 81 | 1008.2 |
| 20260505205606 | 81 | 173 | 2.0 | 7.0 | 0.00 | 0.00 | 0.00 | 81 | 1008.2 |
| 20260505205519 | 81 | 198 | 2.0 | 7.0 | 0.00 | 0.00 | 0.00 | 82 | 1008.2 |
| 20260505205416 | 81 | 136 | 2.0 | 7.0 | 0.00 | 0.00 | 0.00 | 82 | 1008.2 |
| 20260505205316 | 81 | 104 | 2.0 | 7.0 | 0.00 | 0.00 | 0.00 | 82 | 1008.2 |
| 20260505205216 | 81 | 108 | 2.0 | 7.0 | 0.00 | 0.00 | 0.00 | 82 | 1008.3 |
| 20260505205116 | 81 | 274 | 2.0 | 10.0 | 0.00 | 0.00 | 0.00 | 82 | 1008.3 |
| 20260505205106 | 81 | 228 | 2.0 | 10.0 | 0.00 | 0.00 | 0.00 | 82 | 1008.3 |
| 20260505205016 | 81 | 213 | 2.0 | 10.0 | 0.00 | 0.00 | 0.00 | 81 | 1008.3 |
| 20260505204913 | 81 | 92 | 2.0 | 10.0 | 0.00 | 0.00 | 0.00 | 82 | 1008.3 |
| 20260505204813 | 81 | 173 | 2.0 | 10.0 | 0.00 | 0.00 | 0.00 | 82 | 1008.4 |
| 20260505204713 | 81 | 249 | 2.0 | 10.0 | 0.00 | 0.00 | 0.00 | 82 | 1008.4 |
| 20260505204613 | 81 | 183 | 2.0 | 10.0 | 0.00 | 0.00 | 0.00 | 82 | 1008.3 |
| 20260505204607 | 81 | 184 | 2.0 | 10.0 | 0.00 | 0.00 | 0.00 | 82 | 1008.3 |
| 20260505204513 | 81 | 196 | 2.0 | 10.0 | 0.00 | 0.00 | 0.00 | 82 | 1008.4 |
| 20260505204414 | 81 | 226 | 2.0 | 10.0 | 0.00 | 0.00 | 0.00 | 82 | 1008.4 |
| 20260505204313 | 81 | 201 | 2.0 | 10.0 | 0.00 | 0.00 | 0.00 | 82 | 1008.4 |
| 20260505204213 | 81 | 167 | 2.0 | 10.0 | 0.00 | 0.00 | 0.00 | 82 | 1008.4 |
| 20260505204113 | 81 | 81 | 2.0 | 7.0 | 0.00 | 0.00 | 0.00 | 82 | 1008.3 |
| 20260505204106 | 81 | 38 | 2.0 | 7.0 | 0.00 | 0.00 | 0.00 | 82 | 1008.3 |
| 20260505204011 | 81 | 201 | 2.0 | 7.0 | 0.00 | 0.00 | 0.00 | 82 | 1008.4 |
| 20260505203911 | 82 | 244 | 2.0 | 7.0 | 0.00 | 0.00 | 0.00 | 82 | 1008.4 |
| 20260505203808 | 82 | 204 | 2.0 | 7.0 | 0.00 | 0.00 | 0.00 | 82 | 1008.4 |
| 20260505203708 | 82 | 157 | 2.0 | 7.0 | 0.00 | 0.00 | 0.00 | 82 | 1008.5 |
| 20260505203608 | 82 | 76 | 2.0 | 7.0 | 0.00 | 0.00 | 0.00 | 82 | 1008.5 |
| 20260505203508 | 82 | 245 | 2.0 | 7.0 | 0.00 | 0.00 | 0.00 | 81 | 1008.5 |
| 20260505203408 | 82 | 239 | 2.0 | 7.0 | 0.00 | 0.00 | 0.00 | 81 | 1008.5 |
| 20260505203336 | 82 | 263 | 2.0 | 5.0 | 0.00 | 0.00 | 0.00 | 82 | 1008.4 |
| 20260505203308 | 82 | 213 | 2.0 | 7.0 | 0.00 | 0.00 | 0.00 | 81 | 1008.5 |
| 20260505203217 | 82 | 162 | 2.0 | 7.0 | 0.00 | 0.00 | 0.00 | 82 | 1008.5 |
| 20260505203212 | 82 | 263 | 2.0 | 5.0 | 0.00 | 0.00 | 0.00 | 82 | 1008.4 |
| 20260505203008 | 82 | 356 | 2.0 | 5.0 | 0.00 | 0.00 | 0.00 | 82 | 1008.5 |
| 20260505202907 | 82 | 176 | 2.0 | 7.0 | 0.00 | 0.00 | 0.00 | 82 | 1008.5 |
| 20260505202831 | 82 | 89 | 2.0 | 7.0 | 0.00 | 0.00 | 0.00 | 82 | 1008.5 |
| 20260505202808 | 82 | 0 | 2.0 | 7.0 | 0.00 | 0.00 | 0.00 | 82 | 1008.5 |
| 20260505202717 | 82 | 196 | 2.0 | 7.0 | 0.00 | 0.00 | 0.00 | 82 | 1008.5 |
| 20260505202712 | 82 | 89 | 2.0 | 7.0 | 0.00 | 0.00 | 0.00 | 82 | 1008.5 |
| 20260505202507 | 82 | 218 | 2.0 | 7.0 | 0.00 | 0.00 | 0.00 | 81 | 1008.5 |
| 20260505202404 | 82 | 166 | 2.0 | 7.0 | 0.00 | 0.00 | 0.00 | 81 | 1008.5 |
| 20260505202306 | 81 | 183 | 2.0 | 7.0 | 0.00 | 0.00 | 0.00 | 81 | 1008.6 |
| 20260505202204 | 82 | 182 | 2.0 | 7.0 | 0.00 | 0.00 | 0.00 | 81 | 1008.6 |
| 20260505202108 | 82 | 237 | 2.0 | 7.0 | 0.00 | 0.00 | 0.00 | 81 | 1008.6 |
| 20260505202104 | 82 | 247 | 2.0 | 7.0 | 0.00 | 0.00 | 0.00 | 81 | 1008.6 |
| 20260505202004 | 82 | 141 | 2.0 | 7.0 | 0.00 | 0.00 | 0.00 | 81 | 1008.6 |
| 20260505201904 | 82 | 212 | 2.0 | 7.0 | 0.00 | 0.00 | 0.00 | 81 | 1008.6 |
| 20260505201804 | 82 | 211 | 2.0 | 7.0 | 0.00 | 0.00 | 0.00 | 81 | 1008.6 |
| 20260505201704 | 82 | 159 | 2.0 | 7.0 | 0.00 | 0.00 | 0.00 | 82 | 1008.6 |
| 20260505201609 | 82 | 173 | 2.0 | 7.0 | 0.00 | 0.00 | 0.00 | 81 | 1008.6 |
| 20260505201605 | 82 | 171 | 2.0 | 7.0 | 0.00 | 0.00 | 0.00 | 81 | 1008.6 |
| 20260505201505 | 82 | 94 | 2.0 | 7.0 | 0.00 | 0.00 | 0.00 | 81 | 1008.6 |
| 20260505201402 | 82 | 145 | 2.0 | 7.0 | 0.00 | 0.00 | 0.00 | 81 | 1008.6 |
| 20260505201323 | 82 | 168 | 2.0 | 7.0 | 0.00 | 0.00 | 0.00 | 81 | 1008.6 |
| 20260505201302 | 82 | 158 | 2.0 | 7.0 | 0.00 | 0.00 | 0.00 | 81 | 1008.6 |
| 20260505201209 | 82 | 104 | 2.0 | 7.0 | 0.00 | 0.00 | 0.00 | 81 | 1008.7 |
| 20260505201100 | 82 | 192 | 2.0 | 7.0 | 0.00 | 0.00 | 0.00 | 81 | 1008.6 |
| 20260505200956 | 81 | 164 | 2.0 | 7.0 | 0.00 | 0.00 | 0.00 | 81 | 1008.7 |
| 20260505200856 | 81 | 209 | 2.0 | 7.0 | 0.00 | 0.00 | 0.00 | 81 | 1008.7 |
| 20260505200756 | 82 | 198 | 2.0 | 7.0 | 0.00 | 0.00 | 0.00 | 81 | 1008.7 |
| 20260505200653 | 82 | 200 | 2.0 | 7.0 | 0.00 | 0.00 | 0.00 | 81 | 1008.7 |
| 20260505200601 | 82 | 171 | 2.0 | 6.0 | 0.00 | 0.00 | 0.00 | 82 | 1008.7 |
| 20260505200550 | 82 | 195 | 2.0 | 6.0 | 0.00 | 0.00 | 0.00 | 82 | 1008.7 |
| 20260505200451 | 82 | 115 | 2.0 | 6.0 | 0.00 | 0.00 | 0.00 | 82 | 1008.7 |
| 20260505200350 | 81 | 178 | 2.0 | 6.0 | 0.00 | 0.00 | 0.00 | 82 | 1008.8 |
| 20260505200301 | 82 | 193 | 2.0 | 8.0 | 0.00 | 0.00 | 0.00 | 83 | 1008.7 |
| 20260505200247 | 81 | 171 | 2.0 | 6.0 | 0.00 | 0.00 | 0.00 | 83 | 1008.7 |
| 20260505200151 | 82 | 235 | 2.0 | 7.0 | 0.00 | 0.00 | 0.00 | 83 | 1008.7 |
| 20260505200145 | 82 | 278 | 2.0 | 8.0 | 0.00 | 0.00 | 0.00 | 83 | 1008.7 |
| 20260505200141 | 82 | 88 | 2.0 | 8.0 | 0.00 | 0.00 | 0.00 | 83 | 1008.8 |
| 20260505195943 | 82 | 264 | 2.0 | 8.0 | 0.00 | 0.00 | 0.00 | 83 | 1008.8 |
| 20260505195918 | 82 | 196 | 2.0 | 8.0 | 0.00 | 0.00 | 0.00 | 83 | 1008.8 |
| 20260505195743 | 82 | 24 | 2.0 | 8.0 | 0.00 | 0.00 | 0.00 | 83 | 1008.8 |
| 20260505195658 | 82 | 99 | 2.0 | 8.0 | 0.00 | 0.00 | 0.00 | 83 | 1008.7 |
| 20260505195652 | 82 | 219 | 2.0 | 8.0 | 0.00 | 0.00 | 0.00 | 83 | 1008.7 |
| 20260505195543 | 82 | 99 | 2.0 | 8.0 | 0.00 | 0.00 | 0.00 | 83 | 1008.7 |
| 20260505195443 | 82 | 167 | 2.0 | 8.0 | 0.00 | 0.00 | 0.00 | 83 | 1008.7 |
| 20260505195426 | 82 | 101 | 2.0 | 8.0 | 0.00 | 0.00 | 0.00 | 83 | 1008.7 |
| 20260505195243 | 82 | 182 | 2.0 | 8.0 | 0.00 | 0.00 | 0.00 | 82 | 1008.7 |
| 20260505195206 | 82 | 169 | 2.0 | 8.0 | 0.00 | 0.00 | 0.00 | 83 | 1008.7 |
| 20260505195042 | 82 | 268 | 2.0 | 6.0 | 0.00 | 0.00 | 0.00 | 83 | 1008.8 |
| 20260505194941 | 82 | 66 | 2.0 | 6.0 | 0.00 | 0.00 | 0.00 | 83 | 1008.8 |
| 20260505194841 | 82 | 261 | 2.0 | 6.0 | 0.00 | 0.00 | 0.00 | 83 | 1008.8 |
| 20260505194738 | 82 | 239 | 2.0 | 5.0 | 0.00 | 0.00 | 0.00 | 83 | 1008.8 |
| 20260505194638 | 82 | 287 | 2.0 | 5.0 | 0.00 | 0.00 | 0.00 | 83 | 1008.8 |
| 20260505194601 | 82 | 29 | 2.0 | 5.0 | 0.00 | 0.00 | 0.00 | 83 | 1008.8 |
| 20260505194538 | 82 | 63 | 2.0 | 5.0 | 0.00 | 0.00 | 0.00 | 83 | 1008.8 |
| 20260505194439 | 82 | 151 | 2.0 | 5.0 | 0.00 | 0.00 | 0.00 | 83 | 1008.8 |
| 20260505194339 | 82 | 204 | 2.0 | 5.0 | 0.00 | 0.00 | 0.00 | 83 | 1008.8 |
| 20260505194239 | 82 | 198 | 2.0 | 4.0 | 0.00 | 0.00 | 0.00 | 83 | 1008.8 |
| 20260505194139 | 82 | 193 | 2.0 | 6.0 | 0.00 | 0.00 | 0.00 | 83 | 1008.8 |
| 20260505194100 | 82 | 192 | 2.0 | 6.0 | 0.00 | 0.00 | 0.00 | 83 | 1008.8 |
| 20260505194038 | 82 | 232 | 2.0 | 6.0 | 0.00 | 0.00 | 0.00 | 83 | 1008.8 |
| 20260505193938 | 82 | 280 | 2.0 | 6.0 | 0.00 | 0.00 | 0.00 | 83 | 1008.8 |
| 20260505193835 | 82 | 178 | 2.0 | 6.0 | 0.00 | 0.00 | 0.00 | 83 | 1008.8 |
| 20260505193824 | 82 | 311 | 2.0 | 6.0 | 0.00 | 0.00 | 0.00 | 83 | 1008.8 |
| 20260505193735 | 82 | 185 | 2.0 | 6.0 | 0.00 | 0.00 | 0.00 | 83 | 1008.8 |
| 20260505193707 | 82 | 223 | 2.0 | 6.0 | 0.00 | 0.00 | 0.00 | 83 | 1008.8 |
| 20260505193532 | 82 | 193 | 2.0 | 6.0 | 0.00 | 0.00 | 0.00 | 82 | 1008.8 |
| 20260505193432 | 82 | 256 | 2.0 | 6.0 | 0.00 | 0.00 | 0.00 | 82 | 1008.8 |
| 20260505193332 | 82 | 202 | 2.0 | 6.0 | 0.00 | 0.00 | 0.00 | 82 | 1008.8 |
| 20260505193232 | 82 | 188 | 2.0 | 6.0 | 0.00 | 0.00 | 0.00 | 82 | 1008.8 |
| 20260505193132 | 82 | 150 | 2.0 | 6.0 | 0.00 | 0.00 | 0.00 | 82 | 1008.8 |
| 20260505193101 | 82 | 176 | 2.0 | 6.0 | 0.00 | 0.00 | 0.00 | 82 | 1008.8 |
| 20260505193033 | 82 | 172 | 2.0 | 6.0 | 0.00 | 0.00 | 0.00 | 82 | 1008.8 |
| 20260505192933 | 82 | 185 | 2.0 | 5.0 | 0.00 | 0.00 | 0.00 | 82 | 1008.8 |
| 20260505192833 | 82 | 176 | 2.0 | 5.0 | 0.00 | 0.00 | 0.00 | 82 | 1008.8 |
| 20260505192733 | 82 | 92 | 2.0 | 5.0 | 0.00 | 0.00 | 0.00 | 82 | 1008.9 |
| 20260505192633 | 82 | 290 | 2.0 | 7.0 | 0.00 | 0.00 | 0.00 | 82 | 1008.8 |
| 20260505192601 | 82 | 150 | 2.0 | 7.0 | 0.00 | 0.00 | 0.00 | 82 | 1008.8 |
| 20260505192533 | 82 | 208 | 2.0 | 7.0 | 0.00 | 0.00 | 0.00 | 82 | 1008.8 |
| 20260505192429 | 82 | 216 | 2.0 | 7.0 | 0.00 | 0.00 | 0.00 | 82 | 1008.8 |
| 20260505192329 | 82 | 160 | 2.0 | 7.0 | 0.00 | 0.00 | 0.00 | 82 | 1008.8 |
| 20260505192230 | 82 | 62 | 2.0 | 7.0 | 0.00 | 0.00 | 0.00 | 82 | 1008.8 |
| 20260505192129 | 82 | 207 | 2.0 | 7.0 | 0.00 | 0.00 | 0.00 | 82 | 1008.8 |
| 20260505192100 | 82 | 209 | 2.0 | 7.0 | 0.00 | 0.00 | 0.00 | 82 | 1008.8 |
| 20260505192029 | 82 | 308 | 2.0 | 7.0 | 0.00 | 0.00 | 0.00 | 82 | 1008.8 |
| 20260505191929 | 82 | 129 | 2.0 | 7.0 | 0.00 | 0.00 | 0.00 | 82 | 1008.8 |
| 20260505191829 | 81 | 218 | 2.0 | 7.0 | 0.00 | 0.00 | 0.00 | 83 | 1008.8 |
| 20260505191730 | 81 | 70 | 2.0 | 7.0 | 0.00 | 0.00 | 0.00 | 83 | 1008.8 |
| 20260505191630 | 81 | 260 | 2.0 | 7.0 | 0.00 | 0.00 | 0.00 | 83 | 1008.9 |
| 20260505191602 | 81 | 324 | 2.0 | 7.0 | 0.00 | 0.00 | 0.00 | 83 | 1008.9 |
| 20260505191529 | 81 | 142 | 2.0 | 7.0 | 0.00 | 0.00 | 0.00 | 83 | 1008.9 |
| 20260505191427 | 81 | 37 | 2.0 | 7.0 | 0.00 | 0.00 | 0.00 | 83 | 1008.9 |
| 20260505191324 | 81 | 219 | 2.0 | 7.0 | 0.00 | 0.00 | 0.00 | 83 | 1008.9 |
| 20260505191224 | 81 | 158 | 2.0 | 7.0 | 0.00 | 0.00 | 0.00 | 83 | 1008.9 |
| 20260505191120 | 81 | 192 | 2.0 | 7.0 | 0.00 | 0.00 | 0.00 | 83 | 1009.0 |
| 20260505191102 | 81 | 160 | 2.0 | 7.0 | 0.00 | 0.00 | 0.00 | 83 | 1009.0 |
| 20260505191021 | 81 | 96 | 2.0 | 9.0 | 0.00 | 0.00 | 0.00 | 83 | 1008.9 |
| 20260505190918 | 81 | 163 | 2.0 | 9.0 | 0.00 | 0.00 | 0.00 | 83 | 1009.0 |
| 20260505190818 | 81 | 193 | 2.0 | 9.0 | 0.00 | 0.00 | 0.00 | 83 | 1009.0 |
| 20260505190715 | 81 | 145 | 2.0 | 9.0 | 0.00 | 0.00 | 0.00 | 83 | 1008.9 |
| 20260505190615 | 81 | 166 | 2.0 | 9.0 | 0.00 | 0.00 | 0.00 | 83 | 1008.9 |
| 20260505190602 | 81 | 160 | 2.0 | 9.0 | 0.00 | 0.00 | 0.00 | 83 | 1008.9 |
| 20260505190512 | 81 | 228 | 2.0 | 9.0 | 0.00 | 0.00 | 0.00 | 83 | 1008.9 |
| 20260505190412 | 81 | 189 | 2.0 | 9.0 | 0.00 | 0.00 | 0.00 | 83 | 1008.9 |
| 20260505190308 | 81 | 330 | 2.0 | 9.0 | 0.00 | 0.00 | 0.00 | 83 | 1008.9 |
| 20260505190208 | 81 | 103 | 2.0 | 9.0 | 0.00 | 0.00 | 0.00 | 83 | 1008.9 |
| 20260505190108 | 81 | 148 | 2.0 | 9.0 | 0.00 | 0.00 | 0.00 | 83 | 1008.9 |
| 20260505190059 | 81 | 161 | 2.0 | 9.0 | 0.00 | 0.00 | 0.00 | 83 | 1008.9 |
| 20260505190009 | 81 | 204 | 1.0 | 5.0 | 0.00 | 0.00 | 0.00 | 83 | 1008.9 |
| 20260505185909 | 81 | 190 | 2.0 | 5.0 | 0.00 | 0.00 | 0.00 | 83 | 1008.9 |
| 20260505185809 | 81 | 166 | 1.0 | 6.0 | 0.00 | 0.00 | 0.00 | 83 | 1008.9 |
| 20260505185708 | 81 | 210 | 2.0 | 6.0 | 0.00 | 0.00 | 0.00 | 84 | 1008.9 |
| 20260505185610 | 81 | 56 | 2.0 | 6.0 | 0.00 | 0.00 | 0.00 | 84 | 1008.9 |
| 20260505185555 | 81 | 312 | 2.0 | 6.0 | 0.00 | 0.00 | 0.00 | 84 | 1008.9 |
| 20260505185510 | 81 | 105 | 2.0 | 6.0 | 0.00 | 0.00 | 0.00 | 85 | 1008.9 |
| 20260505185408 | 81 | 162 | 2.0 | 6.0 | 0.00 | 0.00 | 0.00 | 84 | 1008.9 |
| 20260505185305 | 81 | 210 | 2.0 | 6.0 | 0.00 | 0.00 | 0.00 | 84 | 1009.0 |
| 20260505185203 | 80 | 242 | 2.0 | 6.0 | 0.00 | 0.00 | 0.00 | 85 | 1009.0 |
| 20260505185103 | 80 | 290 | 2.0 | 6.0 | 0.00 | 0.00 | 0.00 | 85 | 1009.1 |
| 20260505185053 | 80 | 50 | 2.0 | 6.0 | 0.00 | 0.00 | 0.00 | 85 | 1009.1 |
| 20260505185003 | 80 | 249 | 2.0 | 6.0 | 0.00 | 0.00 | 0.00 | 85 | 1009.1 |
| 20260505184903 | 80 | 217 | 2.0 | 6.0 | 0.00 | 0.00 | 0.00 | 85 | 1009.1 |
| 20260505184803 | 80 | 198 | 2.0 | 6.0 | 0.00 | 0.00 | 0.00 | 86 | 1009.1 |
| 20260505184700 | 80 | 147 | 2.0 | 6.0 | 0.00 | 0.00 | 0.00 | 86 | 1009.2 |
| 20260505184558 | 80 | 13 | 2.0 | 6.0 | 0.00 | 0.00 | 0.00 | 86 | 1009.2 |
| 20260505184553 | 80 | 313 | 2.0 | 6.0 | 0.00 | 0.00 | 0.00 | 86 | 1009.2 |
| 20260505184457 | 80 | 166 | 2.0 | 6.0 | 0.00 | 0.00 | 0.00 | 87 | 1009.2 |
| 20260505184357 | 80 | 0 | 2.0 | 6.0 | 0.00 | 0.00 | 0.00 | 86 | 1009.2 |
| 20260505184257 | 80 | 161 | 1.0 | 6.0 | 0.00 | 0.00 | 0.00 | 86 | 1009.3 |
| 20260505184157 | 80 | 216 | 1.0 | 5.0 | 0.00 | 0.00 | 0.00 | 86 | 1009.3 |
| 20260505184059 | 80 | 272 | 1.0 | 5.0 | 0.00 | 0.00 | 0.00 | 86 | 1009.3 |
| 20260505184053 | 80 | 255 | 1.0 | 5.0 | 0.00 | 0.00 | 0.00 | 86 | 1009.3 |
| 20260505183957 | 80 | 0 | 1.0 | 5.0 | 0.00 | 0.00 | 0.00 | 86 | 1009.3 |
| 20260505183858 | 80 | 217 | 1.0 | 5.0 | 0.00 | 0.00 | 0.00 | 86 | 1009.3 |
| 20260505183758 | 80 | 49 | 2.0 | 5.0 | 0.00 | 0.00 | 0.00 | 86 | 1009.3 |
| 20260505183658 | 80 | 251 | 2.0 | 5.0 | 0.00 | 0.00 | 0.00 | 86 | 1009.3 |
| 20260505183559 | 80 | 180 | 2.0 | 5.0 | 0.00 | 0.00 | 0.00 | 86 | 1009.3 |
| 20260505183553 | 80 | 177 | 2.0 | 5.0 | 0.00 | 0.00 | 0.00 | 86 | 1009.3 |
| 20260505183457 | 80 | 332 | 1.0 | 5.0 | 0.00 | 0.00 | 0.00 | 86 | 1009.2 |
| 20260505183357 | 80 | 220 | 2.0 | 5.0 | 0.00 | 0.00 | 0.00 | 86 | 1009.2 |
| 20260505183257 | 80 | 304 | 2.0 | 5.0 | 0.00 | 0.00 | 0.00 | 85 | 1009.2 |
| 20260505183157 | 80 | 339 | 2.0 | 7.0 | 0.00 | 0.00 | 0.00 | 86 | 1009.2 |
| 20260505183059 | 80 | 321 | 2.0 | 7.0 | 0.00 | 0.00 | 0.00 | 86 | 1009.2 |
| 20260505183053 | 80 | 286 | 2.0 | 7.0 | 0.00 | 0.00 | 0.00 | 86 | 1009.2 |
| 20260505182958 | 80 | 239 | 2.0 | 7.0 | 0.00 | 0.00 | 0.00 | 86 | 1009.2 |
| 20260505182858 | 80 | 201 | 2.0 | 7.0 | 0.00 | 0.00 | 0.00 | 86 | 1009.2 |
| 20260505182757 | 80 | 181 | 2.0 | 7.0 | 0.00 | 0.00 | 0.00 | 86 | 1009.2 |
| 20260505182654 | 80 | 98 | 2.0 | 7.0 | 0.00 | 0.00 | 0.00 | 86 | 1009.2 |
| 20260505182554 | 80 | 170 | 2.0 | 7.0 | 0.00 | 0.00 | 0.00 | 86 | 1009.3 |
| 20260505182454 | 79 | 256 | 2.0 | 7.0 | 0.00 | 0.00 | 0.00 | 86 | 1009.3 |
| 20260505182354 | 79 | 217 | 2.0 | 7.0 | 0.00 | 0.00 | 0.00 | 86 | 1009.3 |
| 20260505182255 | 79 | 197 | 2.0 | 7.0 | 0.00 | 0.00 | 0.00 | 86 | 1009.3 |
| 20260505182155 | 79 | 27 | 2.0 | 7.0 | 0.00 | 0.00 | 0.00 | 86 | 1009.3 |
| 20260505182055 | 80 | 224 | 2.0 | 7.0 | 0.00 | 0.00 | 0.00 | 86 | 1009.4 |
| 20260505181955 | 80 | 183 | 2.0 | 7.0 | 0.00 | 0.00 | 0.00 | 86 | 1009.4 |
| 20260505181854 | 80 | 196 | 2.0 | 7.0 | 0.00 | 0.00 | 0.00 | 86 | 1009.4 |
| 20260505181752 | 80 | 137 | 2.0 | 7.0 | 0.00 | 0.00 | 0.00 | 86 | 1009.4 |
| 20260505181646 | 80 | 201 | 2.0 | 5.0 | 0.00 | 0.00 | 0.00 | 87 | 1009.4 |
| 20260505181550 | 80 | 238 | 2.0 | 7.0 | 0.00 | 0.00 | 0.00 | 86 | 1009.4 |
| 20260505181546 | 80 | 122 | 2.0 | 7.0 | 0.00 | 0.00 | 0.00 | 86 | 1009.4 |
| 20260505181446 | 80 | 215 | 2.0 | 7.0 | 0.00 | 0.00 | 0.00 | 86 | 1009.3 |
| 20260505181345 | 80 | 19 | 2.0 | 7.0 | 0.00 | 0.00 | 0.00 | 86 | 1009.3 |
| 20260505181310 | 80 | 86 | 2.0 | 7.0 | 0.00 | 0.00 | 0.00 | 86 | 1009.4 |
| 20260505181244 | 80 | 219 | 2.0 | 7.0 | 0.00 | 0.00 | 0.00 | 86 | 1009.3 |
| 20260505181155 | 80 | 154 | 2.0 | 7.0 | 0.00 | 0.00 | 0.00 | 86 | 1009.4 |
| 20260505181045 | 80 | 351 | 2.0 | 7.0 | 0.00 | 0.00 | 0.00 | 85 | 1009.4 |
| 20260505180943 | 80 | 176 | 2.0 | 7.0 | 0.00 | 0.00 | 0.00 | 85 | 1009.4 |
| 20260505180840 | 80 | 189 | 2.0 | 7.0 | 0.00 | 0.00 | 0.00 | 85 | 1009.4 |
| 20260505180736 | 80 | 20 | 2.0 | 7.0 | 0.00 | 0.00 | 0.00 | 85 | 1009.4 |
| 20260505180633 | 80 | 243 | 2.0 | 7.0 | 0.00 | 0.00 | 0.00 | 85 | 1009.4 |
| 20260505180547 | 80 | 145 | 2.0 | 4.0 | 0.00 | 0.00 | 0.00 | 85 | 1009.4 |
| 20260505180534 | 80 | 150 | 2.0 | 4.0 | 0.00 | 0.00 | 0.00 | 85 | 1009.4 |
| 20260505180434 | 80 | 100 | 2.0 | 4.0 | 0.00 | 0.00 | 0.00 | 85 | 1009.4 |
| 20260505180331 | 80 | 190 | 2.0 | 4.0 | 0.00 | 0.00 | 0.00 | 85 | 1009.4 |
| 20260505180231 | 80 | 0 | 2.0 | 4.0 | 0.00 | 0.00 | 0.00 | 85 | 1009.4 |
| 20260505180130 | 80 | 266 | 2.0 | 7.0 | 0.00 | 0.00 | 0.00 | 85 | 1009.4 |
| 20260505180048 | 80 | 121 | 2.0 | 7.0 | 0.00 | 0.00 | 0.00 | 85 | 1009.4 |
| 20260505180008 | 80 | 147 | 2.0 | 7.0 | 0.00 | 0.00 | 0.00 | 85 | 1009.4 |
| 20260505175912 | 80 | 213 | 2.0 | 7.0 | 0.00 | 0.00 | 0.00 | 85 | 1009.4 |
| 20260505175759 | 80 | 159 | 2.0 | 7.0 | 0.00 | 0.00 | 0.00 | 85 | 1009.4 |
| 20260505175642 | 80 | 115 | 2.0 | 7.0 | 0.00 | 0.00 | 0.00 | 86 | 1009.3 |
| 20260505175549 | 80 | 108 | 1.0 | 7.0 | 0.00 | 0.00 | 0.00 | 86 | 1009.4 |
| 20260505175538 | 80 | 159 | 1.0 | 7.0 | 0.00 | 0.00 | 0.00 | 86 | 1009.4 |
| 20260505175439 | 80 | 191 | 2.0 | 7.0 | 0.00 | 0.00 | 0.00 | 86 | 1009.4 |
| 20260505175309 | 80 | 93 | 2.0 | 7.0 | 0.00 | 0.00 | 0.00 | 86 | 1009.4 |
| 20260505175209 | 80 | 257 | 1.0 | 7.0 | 0.00 | 0.00 | 0.00 | 86 | 1009.4 |
| 20260505175115 | 80 | 226 | 1.0 | 5.0 | 0.00 | 0.00 | 0.00 | 86 | 1009.4 |
| 20260505175044 | 80 | 352 | 1.0 | 5.0 | 0.00 | 0.00 | 0.00 | 87 | 1009.4 |
| 20260505174950 | 80 | 239 | 1.0 | 5.0 | 0.00 | 0.00 | 0.00 | 87 | 1009.4 |
| 20260505174845 | 80 | 236 | 1.0 | 5.0 | 0.00 | 0.00 | 0.00 | 86 | 1009.4 |
| 20260505174745 | 80 | 208 | 1.0 | 5.0 | 0.00 | 0.00 | 0.00 | 86 | 1009.4 |
| 20260505174644 | 80 | 193 | 1.0 | 5.0 | 0.00 | 0.00 | 0.00 | 86 | 1009.4 |
| 20260505174543 | 80 | 273 | 1.0 | 5.0 | 0.00 | 0.00 | 0.00 | 86 | 1009.4 |
| 20260505174437 | 80 | 180 | 1.0 | 3.0 | 0.00 | 0.00 | 0.00 | 86 | 1009.4 |
| 20260505174337 | 80 | 115 | 1.0 | 4.0 | 0.00 | 0.00 | 0.00 | 86 | 1009.4 |
| 20260505174254 | 80 | 254 | 1.0 | 5.0 | 0.00 | 0.00 | 0.00 | 86 | 1009.5 |
| 20260505174236 | 80 | 166 | 1.0 | 4.0 | 0.00 | 0.00 | 0.00 | 86 | 1009.4 |
| 20260505174142 | 80 | 142 | 1.0 | 4.0 | 0.00 | 0.00 | 0.00 | 86 | 1009.5 |
| 20260505174031 | 80 | 0 | 1.0 | 5.0 | 0.00 | 0.00 | 0.00 | 86 | 1009.5 |
| 20260505173931 | 80 | 276 | 2.0 | 5.0 | 0.00 | 0.00 | 0.00 | 85 | 1009.5 |
| 20260505173831 | 80 | 259 | 2.0 | 5.0 | 0.00 | 0.00 | 0.00 | 85 | 1009.5 |
| 20260505173730 | 80 | 58 | 2.0 | 5.0 | 0.00 | 0.00 | 0.00 | 85 | 1009.5 |
| 20260505173629 | 80 | 197 | 2.0 | 6.0 | 0.00 | 0.00 | 0.00 | 84 | 1009.5 |
| 20260505173536 | 80 | 168 | 2.0 | 6.0 | 0.00 | 0.00 | 0.00 | 84 | 1009.5 |
| 20260505173529 | 80 | 233 | 2.0 | 6.0 | 0.00 | 0.00 | 0.00 | 84 | 1009.5 |
| 20260505173428 | 80 | 208 | 2.0 | 6.0 | 0.00 | 0.00 | 0.00 | 84 | 1009.5 |
| 20260505173328 | 80 | 181 | 2.0 | 6.0 | 0.00 | 0.00 | 0.00 | 84 | 1009.5 |
| 20260505173225 | 80 | 212 | 2.0 | 6.0 | 0.00 | 0.00 | 0.00 | 84 | 1009.5 |
| 20260505173122 | 80 | 57 | 2.0 | 6.0 | 0.00 | 0.00 | 0.00 | 84 | 1009.5 |
| 20260505173036 | 80 | 164 | 2.0 | 6.0 | 0.00 | 0.00 | 0.00 | 84 | 1009.5 |
| 20260505173022 | 80 | 103 | 2.0 | 6.0 | 0.00 | 0.00 | 0.00 | 84 | 1009.5 |
| 20260505172922 | 80 | 157 | 2.0 | 6.0 | 0.00 | 0.00 | 0.00 | 84 | 1009.5 |
| 20260505172822 | 80 | 79 | 2.0 | 6.0 | 0.00 | 0.00 | 0.00 | 84 | 1009.5 |
| 20260505172723 | 80 | 219 | 2.0 | 6.0 | 0.00 | 0.00 | 0.00 | 83 | 1009.5 |
| 20260505172623 | 80 | 192 | 2.0 | 6.0 | 0.00 | 0.00 | 0.00 | 84 | 1009.6 |
| 20260505172537 | 80 | 197 | 2.0 | 5.0 | 0.00 | 0.00 | 0.00 | 83 | 1009.6 |
| 20260505172523 | 80 | 127 | 2.0 | 5.0 | 0.00 | 0.00 | 0.00 | 83 | 1009.6 |
| 20260505172423 | 80 | 203 | 2.0 | 5.0 | 0.00 | 0.00 | 0.00 | 84 | 1009.6 |
| 20260505172320 | 80 | 277 | 1.0 | 4.0 | 0.00 | 0.00 | 0.00 | 84 | 1009.6 |
| 20260505172300 | 80 | 146 | 2.0 | 7.0 | 0.00 | 0.00 | 0.00 | 85 | 1009.6 |
| 20260505172214 | 80 | 255 | 1.0 | 7.0 | 0.00 | 0.00 | 0.00 | 84 | 1009.6 |
| 20260505172142 | 80 | 310 | 2.0 | 7.0 | 0.00 | 0.00 | 0.00 | 84 | 1009.6 |
| 20260505172013 | 80 | 245 | 2.0 | 7.0 | 0.00 | 0.00 | 0.00 | 85 | 1009.6 |
| 20260505171914 | 80 | 176 | 2.0 | 7.0 | 0.00 | 0.00 | 0.00 | 85 | 1009.6 |
| 20260505171811 | 80 | 318 | 2.0 | 7.0 | 0.00 | 0.00 | 0.00 | 85 | 1009.7 |
| 20260505171755 | 80 | 273 | 2.0 | 7.0 | 0.00 | 0.00 | 0.00 | 85 | 1009.7 |
| 20260505171711 | 80 | 266 | 2.0 | 7.0 | 0.00 | 0.00 | 0.00 | 85 | 1009.6 |
| 20260505171638 | 80 | 81 | 2.0 | 7.0 | 0.00 | 0.00 | 0.00 | 85 | 1009.7 |
| 20260505171511 | 80 | 200 | 2.0 | 7.0 | 0.00 | 0.00 | 0.00 | 85 | 1009.7 |
| 20260505171411 | 80 | 254 | 2.0 | 7.0 | 0.00 | 0.00 | 0.00 | 85 | 1009.7 |
| 20260505171311 | 80 | 243 | 2.0 | 7.0 | 0.00 | 0.00 | 0.00 | 84 | 1009.7 |
| 20260505171208 | 80 | 183 | 2.0 | 7.0 | 0.00 | 0.00 | 0.00 | 85 | 1009.8 |
| 20260505171108 | 80 | 32 | 2.0 | 6.0 | 0.00 | 0.00 | 0.00 | 84 | 1009.8 |
| 20260505171033 | 80 | 211 | 2.0 | 6.0 | 0.00 | 0.00 | 0.00 | 84 | 1009.8 |
| 20260505171001 | 80 | 212 | 2.0 | 6.0 | 0.00 | 0.00 | 0.00 | 84 | 1009.8 |
| 20260505170859 | 80 | 168 | 2.0 | 7.0 | 0.00 | 0.00 | 0.00 | 84 | 1009.8 |
| 20260505170758 | 80 | 230 | 2.0 | 7.0 | 0.00 | 0.00 | 0.00 | 84 | 1009.8 |
| 20260505170659 | 80 | 173 | 2.0 | 7.0 | 0.00 | 0.00 | 0.00 | 85 | 1009.8 |
| 20260505170559 | 80 | 221 | 2.0 | 7.0 | 0.00 | 0.00 | 0.00 | 84 | 1009.8 |
| 20260505170533 | 80 | 256 | 2.0 | 7.0 | 0.00 | 0.00 | 0.00 | 84 | 1009.8 |
| 20260505170456 | 80 | 252 | 2.0 | 7.0 | 0.00 | 0.00 | 0.00 | 84 | 1009.8 |
| 20260505170356 | 80 | 203 | 2.0 | 7.0 | 0.00 | 0.00 | 0.00 | 84 | 1009.8 |
| 20260505170256 | 80 | 107 | 2.0 | 7.0 | 0.00 | 0.00 | 0.00 | 84 | 1009.8 |
| 20260505170156 | 80 | 180 | 2.0 | 7.0 | 0.00 | 0.00 | 0.00 | 84 | 1009.7 |
| 20260505170053 | 80 | 213 | 2.0 | 7.0 | 0.00 | 0.00 | 0.00 | 84 | 1009.7 |
| 20260505170034 | 80 | 123 | 2.0 | 7.0 | 0.00 | 0.00 | 0.00 | 83 | 1009.6 |
| 20260505165950 | 80 | 136 | 2.0 | 7.0 | 0.00 | 0.00 | 0.00 | 83 | 1009.6 |
| 20260505165850 | 80 | 104 | 2.0 | 7.0 | 0.00 | 0.00 | 0.00 | 83 | 1009.6 |
| 20260505165750 | 80 | 176 | 2.0 | 7.0 | 0.00 | 0.00 | 0.00 | 83 | 1009.6 |
| 20260505165647 | 80 | 208 | 2.0 | 7.0 | 0.00 | 0.00 | 0.00 | 84 | 1009.7 |
| 20260505165545 | 80 | 213 | 2.0 | 7.0 | 0.00 | 0.00 | 0.00 | 83 | 1009.6 |
| 20260505165531 | 80 | 255 | 2.0 | 8.0 | 0.00 | 0.00 | 0.00 | 83 | 1009.6 |
| 20260505165444 | 80 | 239 | 2.0 | 8.0 | 0.00 | 0.00 | 0.00 | 83 | 1009.6 |
| 20260505165344 | 80 | 213 | 2.0 | 8.0 | 0.00 | 0.00 | 0.00 | 83 | 1009.6 |
| 20260505165235 | 80 | 204 | 2.0 | 8.0 | 0.00 | 0.00 | 0.00 | 83 | 1009.6 |
| 20260505165135 | 80 | 249 | 2.0 | 8.0 | 0.00 | 0.00 | 0.00 | 83 | 1009.5 |
| 20260505165027 | 80 | 193 | 2.0 | 8.0 | 0.00 | 0.00 | 0.00 | 83 | 1009.5 |
| 20260505164932 | 80 | 148 | 2.0 | 8.0 | 0.00 | 0.00 | 0.00 | 83 | 1009.5 |
| 20260505164832 | 80 | 98 | 2.0 | 8.0 | 0.00 | 0.00 | 0.00 | 82 | 1009.5 |
| 20260505164732 | 80 | 216 | 2.0 | 8.0 | 0.00 | 0.00 | 0.00 | 82 | 1009.5 |
| 20260505164633 | 80 | 207 | 2.0 | 8.0 | 0.00 | 0.00 | 0.00 | 82 | 1009.5 |
| 20260505164532 | 80 | 48 | 2.0 | 7.0 | 0.00 | 0.00 | 0.00 | 82 | 1009.6 |
| 20260505164525 | 80 | 155 | 2.0 | 7.0 | 0.00 | 0.00 | 0.00 | 82 | 1009.6 |
| 20260505164432 | 80 | 160 | 2.0 | 6.0 | 0.00 | 0.00 | 0.00 | 83 | 1009.6 |
| 20260505164332 | 80 | 144 | 2.0 | 6.0 | 0.00 | 0.00 | 0.00 | 83 | 1009.6 |
| 20260505164232 | 80 | 196 | 2.0 | 6.0 | 0.00 | 0.00 | 0.00 | 83 | 1009.6 |
| 20260505164132 | 80 | 247 | 2.0 | 6.0 | 0.00 | 0.00 | 0.00 | 83 | 1009.6 |
| 20260505164032 | 80 | 158 | 2.0 | 6.0 | 0.00 | 0.00 | 0.00 | 83 | 1009.6 |
| 20260505164025 | 80 | 197 | 2.0 | 6.0 | 0.00 | 0.00 | 0.00 | 83 | 1009.6 |
| 20260505163929 | 79 | 109 | 2.0 | 6.0 | 0.00 | 0.00 | 0.00 | 84 | 1009.6 |
| 20260505163829 | 79 | 73 | 2.0 | 7.0 | 0.00 | 0.00 | 0.00 | 84 | 1009.6 |
| 20260505163720 | 79 | 274 | 2.0 | 8.0 | 0.00 | 0.00 | 0.00 | 84 | 1009.6 |
| 20260505163620 | 79 | 195 | 3.0 | 8.0 | 0.00 | 0.00 | 0.00 | 84 | 1009.6 |
| 20260505163525 | 79 | 244 | 3.0 | 8.0 | 0.00 | 0.00 | 0.00 | 85 | 1009.6 |
| 20260505163520 | 79 | 233 | 3.0 | 8.0 | 0.00 | 0.00 | 0.00 | 85 | 1009.6 |
| 20260505163415 | 79 | 240 | 3.0 | 8.0 | 0.00 | 0.00 | 0.00 | 85 | 1009.6 |
| 20260505163311 | 79 | 212 | 3.0 | 8.0 | 0.00 | 0.00 | 0.00 | 85 | 1009.6 |
| 20260505163207 | 79 | 0 | 3.0 | 8.0 | 0.00 | 0.00 | 0.00 | 85 | 1009.6 |
| 20260505163109 | 79 | 279 | 3.0 | 8.0 | 0.00 | 0.00 | 0.00 | 84 | 1009.6 |
| 20260505163026 | 79 | 196 | 2.0 | 8.0 | 0.00 | 0.00 | 0.00 | 84 | 1009.7 |
| 20260505163009 | 79 | 187 | 2.0 | 8.0 | 0.00 | 0.00 | 0.00 | 84 | 1009.7 |
| 20260505162905 | 79 | 49 | 2.0 | 8.0 | 0.00 | 0.00 | 0.00 | 84 | 1009.7 |
| 20260505162805 | 79 | 77 | 2.0 | 8.0 | 0.00 | 0.00 | 0.00 | 84 | 1009.7 |
| 20260505162705 | 79 | 323 | 2.0 | 8.0 | 0.00 | 0.00 | 0.00 | 84 | 1009.6 |
| 20260505162606 | 79 | 81 | 2.0 | 6.0 | 0.00 | 0.00 | 0.00 | 84 | 1009.7 |
| 20260505162525 | 79 | 220 | 2.0 | 6.0 | 0.00 | 0.00 | 0.00 | 84 | 1009.7 |
| 20260505162505 | 79 | 319 | 2.0 | 6.0 | 0.00 | 0.00 | 0.00 | 84 | 1009.7 |
| 20260505162402 | 79 | 68 | 1.0 | 5.0 | 0.00 | 0.00 | 0.00 | 84 | 1009.6 |
| 20260505162306 | 79 | 193 | 1.0 | 5.0 | 0.00 | 0.00 | 0.00 | 85 | 1009.7 |
| 20260505162202 | 79 | 284 | 1.0 | 6.0 | 0.00 | 0.00 | 0.00 | 85 | 1009.6 |
| 20260505162100 | 79 | 310 | 2.0 | 6.0 | 0.00 | 0.00 | 0.00 | 85 | 1009.6 |
| 20260505162024 | 79 | 275 | 2.0 | 6.0 | 0.00 | 0.00 | 0.00 | 85 | 1009.6 |
| 20260505161959 | 79 | 351 | 2.0 | 6.0 | 0.00 | 0.00 | 0.00 | 85 | 1009.6 |
| 20260505161859 | 79 | 237 | 2.0 | 6.0 | 0.00 | 0.00 | 0.00 | 85 | 1009.6 |
| 20260505161759 | 79 | 275 | 2.0 | 6.0 | 0.00 | 0.00 | 0.00 | 85 | 1009.6 |
| 20260505161659 | 79 | 211 | 2.0 | 6.0 | 0.00 | 0.00 | 0.00 | 85 | 1009.6 |
| 20260505161600 | 79 | 275 | 2.0 | 6.0 | 0.00 | 0.00 | 0.00 | 85 | 1009.6 |
| 20260505161525 | 79 | 241 | 2.0 | 6.0 | 0.00 | 0.00 | 0.00 | 85 | 1009.6 |
| 20260505161459 | 79 | 260 | 2.0 | 6.0 | 0.00 | 0.00 | 0.00 | 85 | 1009.6 |
| 20260505161359 | 79 | 235 | 2.0 | 9.0 | 0.00 | 0.00 | 0.00 | 85 | 1009.6 |
| 20260505161259 | 79 | 208 | 2.0 | 9.0 | 0.00 | 0.00 | 0.00 | 84 | 1009.5 |
| 20260505161200 | 79 | 179 | 2.0 | 9.0 | 0.00 | 0.00 | 0.00 | 84 | 1009.5 |
| 20260505161057 | 79 | 217 | 2.0 | 9.0 | 0.00 | 0.00 | 0.00 | 84 | 1009.5 |
| 20260505161026 | 79 | 124 | 2.0 | 9.0 | 0.00 | 0.00 | 0.00 | 84 | 1009.5 |
| 20260505160957 | 79 | 232 | 2.0 | 9.0 | 0.00 | 0.00 | 0.00 | 84 | 1009.5 |
| 20260505160856 | 79 | 233 | 3.0 | 9.0 | 0.00 | 0.00 | 0.00 | 84 | 1009.4 |
| 20260505160756 | 79 | 179 | 2.0 | 9.0 | 0.00 | 0.00 | 0.00 | 85 | 1009.5 |
| 20260505160656 | 79 | 243 | 3.0 | 9.0 | 0.00 | 0.00 | 0.00 | 85 | 1009.5 |
| 20260505160556 | 79 | 115 | 2.0 | 9.0 | 0.00 | 0.00 | 0.00 | 85 | 1009.5 |
| 20260505160522 | 79 | 237 | 2.0 | 9.0 | 0.00 | 0.00 | 0.00 | 85 | 1009.4 |
| 20260505160458 | 79 | 169 | 2.0 | 9.0 | 0.00 | 0.00 | 0.00 | 85 | 1009.5 |
| 20260505160346 | 79 | 217 | 2.0 | 7.0 | 0.00 | 0.00 | 0.00 | 85 | 1009.4 |
| 20260505160246 | 79 | 185 | 2.0 | 8.0 | 0.00 | 0.00 | 0.00 | 84 | 1009.5 |
| 20260505160146 | 79 | 165 | 3.0 | 9.0 | 0.00 | 0.00 | 0.00 | 84 | 1009.5 |
| 20260505153318 | 78 | 101 | 2.0 | 7.0 | 0.00 | 0.00 | 0.00 | 85 | 1009.4 |
| 20260505153218 | 78 | 295 | 2.0 | 7.0 | 0.00 | 0.00 | 0.00 | 85 | 1009.4 |
| 20260505153118 | 78 | 207 | 2.0 | 7.0 | 0.00 | 0.00 | 0.00 | 85 | 1009.3 |
| 20260505153015 | 78 | 197 | 2.0 | 7.0 | 0.00 | 0.00 | 0.00 | 85 | 1009.3 |
| 20260505152915 | 78 | 238 | 2.0 | 6.0 | 0.00 | 0.00 | 0.00 | 85 | 1009.3 |
| 20260505152815 | 79 | 214 | 2.0 | 7.0 | 0.00 | 0.00 | 0.00 | 85 | 1009.3 |
| 20260505152715 | 79 | 169 | 2.0 | 7.0 | 0.00 | 0.00 | 0.00 | 85 | 1009.3 |
| 20260505152612 | 79 | 199 | 2.0 | 7.0 | 0.00 | 0.00 | 0.00 | 85 | 1009.3 |
| 20260505152516 | 79 | 188 | 2.0 | 7.0 | 0.00 | 0.00 | 0.00 | 85 | 1009.3 |
| 20260505152512 | 79 | 68 | 2.0 | 7.0 | 0.00 | 0.00 | 0.00 | 85 | 1009.3 |
| 20260505152409 | 79 | 349 | 2.0 | 7.0 | 0.00 | 0.00 | 0.00 | 84 | 1009.3 |
| 20260505152306 | 79 | 285 | 2.0 | 7.0 | 0.00 | 0.00 | 0.00 | 84 | 1009.3 |
| 20260505152203 | 79 | 288 | 2.0 | 7.0 | 0.00 | 0.00 | 0.00 | 84 | 1009.3 |
| 20260505152103 | 79 | 111 | 2.0 | 7.0 | 0.00 | 0.00 | 0.00 | 85 | 1009.2 |
| 20260505152013 | 79 | 302 | 2.0 | 7.0 | 0.00 | 0.00 | 0.00 | 84 | 1009.3 |
| 20260505152001 | 79 | 245 | 2.0 | 7.0 | 0.00 | 0.00 | 0.00 | 84 | 1009.3 |
| 20260505151901 | 79 | 144 | 2.0 | 7.0 | 0.00 | 0.00 | 0.00 | 85 | 1009.2 |
| 20260505151800 | 79 | 183 | 2.0 | 7.0 | 0.00 | 0.00 | 0.00 | 85 | 1009.3 |
| 20260505151741 | 79 | 273 | 2.0 | 9.0 | 0.00 | 0.00 | 0.00 | 84 | 1009.2 |
| 20260505151700 | 79 | 1 | 2.0 | 9.0 | 0.00 | 0.00 | 0.00 | 85 | 1009.3 |
| 20260505151619 | 79 | 175 | 2.0 | 9.0 | 0.00 | 0.00 | 0.00 | 84 | 1009.2 |
| 20260505151457 | 79 | 237 | 3.0 | 9.0 | 0.00 | 0.00 | 0.00 | 84 | 1009.2 |
| 20260505151354 | 79 | 193 | 3.0 | 9.0 | 0.00 | 0.00 | 0.00 | 83 | 1009.2 |
| 20260505151251 | 79 | 0 | 3.0 | 9.0 | 0.00 | 0.00 | 0.00 | 83 | 1009.2 |
| 20260505151152 | 79 | 272 | 3.0 | 9.0 | 0.00 | 0.00 | 0.00 | 84 | 1009.2 |
| 20260505151051 | 79 | 284 | 3.0 | 9.0 | 0.00 | 0.00 | 0.00 | 84 | 1009.1 |
| 20260505151011 | 79 | 237 | 2.0 | 9.0 | 0.00 | 0.00 | 0.00 | 84 | 1009.2 |
| 20260505150952 | 79 | 209 | 2.0 | 9.0 | 0.00 | 0.00 | 0.00 | 84 | 1009.2 |
| 20260505150848 | 79 | 121 | 2.0 | 9.0 | 0.00 | 0.00 | 0.00 | 84 | 1009.1 |
| 20260505150749 | 79 | 314 | 2.0 | 9.0 | 0.00 | 0.00 | 0.00 | 83 | 1009.0 |
| 20260505150648 | 79 | 174 | 2.0 | 9.0 | 0.00 | 0.00 | 0.00 | 83 | 1009.0 |
| 20260505150546 | 79 | 189 | 2.0 | 6.0 | 0.00 | 0.00 | 0.00 | 83 | 1009.0 |
| 20260505150511 | 79 | 246 | 2.0 | 6.0 | 0.00 | 0.00 | 0.00 | 83 | 1009.0 |
| 20260505150446 | 79 | 167 | 2.0 | 6.0 | 0.00 | 0.00 | 0.00 | 83 | 1009.1 |
| 20260505150346 | 79 | 95 | 2.0 | 6.0 | 0.00 | 0.00 | 0.00 | 83 | 1009.1 |
| 20260505150245 | 79 | 52 | 2.0 | 6.0 | 0.00 | 0.00 | 0.00 | 83 | 1009.1 |
| 20260505150142 | 79 | 50 | 2.0 | 6.0 | 0.00 | 0.00 | 0.00 | 83 | 1009.1 |
| 20260505140604 | 76 | 147 | 2.0 | 6.0 | 0.00 | 0.00 | 0.00 | 90 | 1009.3 |
| 20260505140504 | 76 | 133 | 2.0 | 6.0 | 0.00 | 0.00 | 0.00 | 90 | 1009.3 |
| 20260505140433 | 76 | 212 | 2.0 | 6.0 | 0.00 | 0.00 | 0.00 | 90 | 1009.3 |
| 20260505140405 | 76 | 175 | 2.0 | 6.0 | 0.00 | 0.00 | 0.00 | 90 | 1009.3 |
| 20260505140304 | 76 | 294 | 2.0 | 6.0 | 0.00 | 0.00 | 0.00 | 90 | 1009.3 |
| 20260505140204 | 76 | 231 | 2.0 | 6.0 | 0.00 | 0.00 | 0.00 | 90 | 1009.3 |
| 20260505130220 | 75 | 214 | 2.0 | 4.0 | 0.00 | 0.00 | 0.00 | 91 | 1009.0 |
| 20260505130120 | 75 | 179 | 2.0 | 5.0 | 0.00 | 0.00 | 0.00 | 91 | 1009.1 |
| 20260505124950 | 74 | 191 | 2.0 | 5.0 | 0.00 | 0.00 | 0.00 | 92 | 1009.0 |
| 20260505124851 | 74 | 175 | 2.0 | 5.0 | 0.00 | 0.00 | 0.00 | 92 | 1009.0 |
| 20260505124833 | 74 | 136 | 2.0 | 5.0 | 0.00 | 0.00 | 0.00 | 92 | 1008.9 |
| 20260505124747 | 74 | 168 | 2.0 | 5.0 | 0.00 | 0.00 | 0.00 | 92 | 1008.9 |
| 20260505124650 | 74 | 264 | 2.0 | 5.0 | 0.00 | 0.00 | 0.00 | 92 | 1008.9 |
| 20260505124535 | 74 | 175 | 2.0 | 5.0 | 0.00 | 0.00 | 0.00 | 92 | 1008.9 |
| 20260505124435 | 74 | 205 | 2.0 | 5.0 | 0.00 | 0.00 | 0.00 | 92 | 1008.8 |
| 20260505124336 | 74 | 219 | 2.0 | 5.0 | 0.00 | 0.00 | 0.00 | 92 | 1008.8 |
| 20260505124235 | 74 | 160 | 2.0 | 4.0 | 0.00 | 0.00 | 0.00 | 92 | 1008.8 |
| 20260505124135 | 74 | 237 | 2.0 | 4.0 | 0.00 | 0.00 | 0.00 | 92 | 1008.8 |
| 20260505124035 | 74 | 174 | 2.0 | 4.0 | 0.00 | 0.00 | 0.00 | 92 | 1008.8 |
| 20260505123935 | 74 | 187 | 1.0 | 3.0 | 0.00 | 0.00 | 0.00 | 93 | 1008.8 |
| 20260505123836 | 73 | 121 | 1.0 | 3.0 | 0.00 | 0.00 | 0.00 | 93 | 1008.8 |
| 20260505123735 | 73 | 293 | 1.0 | 3.0 | 0.00 | 0.00 | 0.00 | 93 | 1008.8 |
| 20260505123635 | 73 | 174 | 1.0 | 3.0 | 0.00 | 0.00 | 0.00 | 93 | 1008.8 |
| 20260505123535 | 73 | 118 | 1.0 | 3.0 | 0.00 | 0.00 | 0.00 | 93 | 1008.8 |
| 20260505123435 | 73 | 124 | 1.0 | 2.0 | 0.00 | 0.00 | 0.00 | 93 | 1008.8 |
| 20260505123336 | 73 | 108 | 1.0 | 2.0 | 0.00 | 0.00 | 0.00 | 93 | 1008.8 |
| 20260505123236 | 73 | 255 | 1.0 | 3.0 | 0.00 | 0.00 | 0.00 | 93 | 1008.8 |
| 20260505123136 | 73 | 173 | 1.0 | 3.0 | 0.00 | 0.00 | 0.00 | 93 | 1008.7 |
| 20260505123035 | 73 | 81 | 1.0 | 3.0 | 0.00 | 0.00 | 0.00 | 93 | 1008.7 |
| 20260505122935 | 73 | 186 | 1.0 | 3.0 | 0.00 | 0.00 | 0.00 | 93 | 1008.6 |
| 20260505122836 | 73 | 358 | 1.0 | 3.0 | 0.00 | 0.00 | 0.00 | 93 | 1008.6 |
| 20260505122736 | 73 | 153 | 1.0 | 4.0 | 0.00 | 0.00 | 0.00 | 92 | 1008.7 |
| 20260505122636 | 73 | 238 | 1.0 | 4.0 | 0.00 | 0.00 | 0.00 | 92 | 1008.7 |
| 20260505122558 | 73 | 120 | 1.0 | 4.0 | 0.00 | 0.00 | 0.00 | 92 | 1008.6 |
| 20260505122536 | 73 | 107 | 1.0 | 4.0 | 0.00 | 0.00 | 0.00 | 92 | 1008.7 |
| 20260505122446 | 73 | 175 | 1.0 | 4.0 | 0.00 | 0.00 | 0.00 | 92 | 1008.6 |
| 20260505122440 | 73 | 120 | 1.0 | 4.0 | 0.00 | 0.00 | 0.00 | 92 | 1008.6 |
| 20260505122221 | 73 | 148 | 1.0 | 4.0 | 0.00 | 0.00 | 0.00 | 92 | 1008.6 |
| 20260505122120 | 73 | 57 | 1.0 | 4.0 | 0.00 | 0.00 | 0.00 | 92 | 1008.7 |
| 20260505122006 | 73 | 120 | 1.0 | 4.0 | 0.00 | 0.00 | 0.00 | 92 | 1008.8 |
| 20260505121906 | 73 | 186 | 1.0 | 4.0 | 0.00 | 0.00 | 0.00 | 92 | 1008.8 |
| 20260505121820 | 73 | 126 | 1.0 | 4.0 | 0.00 | 0.00 | 0.00 | 92 | 1008.8 |
| 20260505121807 | 73 | 80 | 1.0 | 4.0 | 0.00 | 0.00 | 0.00 | 92 | 1008.8 |
| 20260505121705 | 73 | 257 | 1.0 | 3.0 | 0.00 | 0.00 | 0.00 | 92 | 1008.8 |
| 20260505121605 | 73 | 156 | 1.0 | 3.0 | 0.00 | 0.00 | 0.00 | 92 | 1008.8 |
| 20260505121505 | 73 | 82 | 1.0 | 3.0 | 0.00 | 0.00 | 0.00 | 92 | 1008.8 |
| 20260505121349 | 73 | 13 | 1.0 | 2.0 | 0.00 | 0.00 | 0.00 | 92 | 1008.7 |
| 20260505121304 | 73 | 13 | 1.0 | 3.0 | 0.00 | 0.00 | 0.00 | 92 | 1008.7 |
| 20260505121236 | 73 | 324 | 1.0 | 3.0 | 0.00 | 0.00 | 0.00 | 92 | 1008.7 |
| 20260505121135 | 73 | 144 | 1.0 | 3.0 | 0.00 | 0.00 | 0.00 | 92 | 1008.8 |
| 20260505120950 | 73 | 91 | 1.0 | 3.0 | 0.00 | 0.00 | 0.00 | 92 | 1008.8 |
| 20260505120851 | 73 | 52 | 1.0 | 3.0 | 0.00 | 0.00 | 0.00 | 92 | 1008.8 |
| 20260505120805 | 73 | 110 | 2.0 | 3.0 | 0.00 | 0.00 | 0.00 | 92 | 1008.9 |
| 20260505120751 | 73 | 157 | 2.0 | 3.0 | 0.00 | 0.00 | 0.00 | 92 | 1008.9 |
| 20260505120649 | 73 | 80 | 2.0 | 3.0 | 0.00 | 0.00 | 0.00 | 92 | 1008.9 |
| 20260505120550 | 73 | 220 | 2.0 | 3.0 | 0.00 | 0.00 | 0.00 | 92 | 1008.8 |
| 20260505120527 | 73 | 162 | 2.0 | 3.0 | 0.00 | 0.00 | 0.00 | 92 | 1008.8 |
| 20260505120449 | 73 | 151 | 2.0 | 3.0 | 0.00 | 0.00 | 0.00 | 92 | 1008.8 |
| 20260505120411 | 73 | 76 | 2.0 | 3.0 | 0.00 | 0.00 | 0.00 | 92 | 1008.8 |
| 20260505120236 | 73 | 178 | 2.0 | 3.0 | 0.00 | 0.00 | 0.00 | 92 | 1008.8 |
| 20260505120135 | 73 | 106 | 2.0 | 3.0 | 0.00 | 0.00 | 0.00 | 92 | 1008.8 |
| 20260505120036 | 73 | 103 | 2.0 | 3.0 | 0.00 | 0.00 | 0.00 | 92 | 1008.8 |
| 20260505120028 | 73 | 226 | 2.0 | 3.0 | 0.00 | 0.00 | 0.00 | 92 | 1008.8 |
| 20260505115936 | 73 | 189 | 2.0 | 3.0 | 0.00 | 0.00 | 0.00 | 92 | 1008.8 |
| 20260505115911 | 73 | 179 | 2.0 | 3.0 | 0.00 | 0.00 | 0.00 | 92 | 1008.8 |
| 20260505115721 | 73 | 139 | 2.0 | 3.0 | 0.00 | 0.00 | 0.00 | 92 | 1008.8 |
| 20260505115621 | 73 | 113 | 2.0 | 3.0 | 0.00 | 0.00 | 0.00 | 92 | 1008.8 |
| 20260505115522 | 73 | 189 | 2.0 | 3.0 | 0.00 | 0.00 | 0.00 | 92 | 1008.7 |
| 20260505115406 | 73 | 151 | 2.0 | 3.0 | 0.00 | 0.00 | 0.00 | 92 | 1008.7 |
| 20260505115306 | 73 | 207 | 2.0 | 3.0 | 0.00 | 0.00 | 0.00 | 92 | 1008.7 |
| 20260505115150 | 73 | 85 | 1.0 | 3.0 | 0.00 | 0.00 | 0.00 | 92 | 1008.7 |
| 20260505115050 | 73 | 123 | 1.0 | 3.0 | 0.00 | 0.00 | 0.00 | 92 | 1008.7 |
| 20260505114950 | 73 | 214 | 1.0 | 3.0 | 0.00 | 0.00 | 0.00 | 92 | 1008.6 |
| 20260505114836 | 73 | 209 | 2.0 | 4.0 | 0.00 | 0.00 | 0.00 | 92 | 1008.6 |
| 20260505114750 | 73 | 33 | 2.0 | 4.0 | 0.00 | 0.00 | 0.00 | 92 | 1008.6 |
| 20260505114722 | 73 | 270 | 2.0 | 4.0 | 0.00 | 0.00 | 0.00 | 93 | 1008.6 |
| 20260505114621 | 73 | 153 | 1.0 | 4.0 | 0.00 | 0.00 | 0.00 | 93 | 1008.6 |
| 20260505114521 | 73 | 202 | 1.0 | 4.0 | 0.00 | 0.00 | 0.00 | 93 | 1008.6 |
| 20260505114421 | 73 | 88 | 2.0 | 4.0 | 0.00 | 0.00 | 0.00 | 93 | 1008.6 |
| 20260505114321 | 73 | 105 | 2.0 | 4.0 | 0.00 | 0.00 | 0.00 | 93 | 1008.6 |
| 20260505114250 | 73 | 211 | 2.0 | 4.0 | 0.00 | 0.00 | 0.00 | 93 | 1008.6 |
| 20260505114220 | 73 | 330 | 2.0 | 4.0 | 0.00 | 0.00 | 0.00 | 93 | 1008.6 |
| 20260505114122 | 73 | 115 | 2.0 | 4.0 | 0.00 | 0.00 | 0.00 | 93 | 1008.7 |
| 20260505114021 | 73 | 203 | 2.0 | 4.0 | 0.00 | 0.00 | 0.00 | 93 | 1008.7 |
| 20260505113921 | 73 | 158 | 2.0 | 4.0 | 0.00 | 0.00 | 0.00 | 93 | 1008.7 |
| 20260505113807 | 73 | 228 | 2.0 | 4.0 | 0.00 | 0.00 | 0.00 | 93 | 1008.7 |
| 20260505113750 | 73 | 118 | 2.0 | 4.0 | 0.00 | 0.00 | 0.00 | 93 | 1008.7 |
| 20260505113706 | 73 | 66 | 2.0 | 4.0 | 0.00 | 0.00 | 0.00 | 93 | 1008.6 |
| 20260505113606 | 73 | 121 | 2.0 | 4.0 | 0.00 | 0.00 | 0.00 | 93 | 1008.6 |
| 20260505113506 | 73 | 115 | 2.0 | 4.0 | 0.00 | 0.00 | 0.00 | 93 | 1008.6 |
| 20260505113406 | 73 | 176 | 1.0 | 4.0 | 0.00 | 0.00 | 0.00 | 93 | 1008.5 |
| 20260505113306 | 73 | 106 | 1.0 | 2.0 | 0.00 | 0.00 | 0.00 | 93 | 1008.5 |
| 20260505113250 | 73 | 137 | 1.0 | 2.0 | 0.00 | 0.00 | 0.00 | 93 | 1008.5 |
| 20260505113206 | 73 | 110 | 1.0 | 2.0 | 0.00 | 0.00 | 0.00 | 93 | 1008.5 |
| 20260505113051 | 73 | 122 | 1.0 | 2.0 | 0.00 | 0.00 | 0.00 | 93 | 1008.5 |
| 20260505112950 | 73 | 183 | 1.0 | 3.0 | 0.00 | 0.00 | 0.00 | 93 | 1008.6 |
| 20260505112850 | 73 | 86 | 1.0 | 3.0 | 0.00 | 0.00 | 0.00 | 93 | 1008.7 |
| 20260505112750 | 73 | 222 | 1.0 | 3.0 | 0.00 | 0.00 | 0.00 | 93 | 1008.7 |
| 20260505112650 | 73 | 190 | 1.0 | 3.0 | 0.00 | 0.00 | 0.00 | 93 | 1008.8 |
| 20260505112549 | 73 | 0 | 1.0 | 3.0 | 0.00 | 0.00 | 0.00 | 93 | 1008.8 |
| 20260505112437 | 73 | 144 | 1.0 | 3.0 | 0.00 | 0.00 | 0.00 | 93 | 1008.8 |
| 20260505112306 | 73 | 267 | 1.0 | 3.0 | 0.00 | 0.00 | 0.00 | 93 | 1008.7 |
| 20260505112249 | 73 | 175 | 1.0 | 3.0 | 0.00 | 0.00 | 0.00 | 93 | 1008.7 |
| 20260505112206 | 73 | 136 | 1.0 | 3.0 | 0.00 | 0.00 | 0.00 | 93 | 1008.7 |
| 20260505112052 | 73 | 207 | 1.0 | 3.0 | 0.00 | 0.00 | 0.00 | 93 | 1008.7 |
| 20260505111951 | 73 | 177 | 1.0 | 2.0 | 0.00 | 0.00 | 0.00 | 92 | 1008.7 |
| 20260505111850 | 73 | 128 | 1.0 | 2.0 | 0.00 | 0.00 | 0.00 | 93 | 1008.8 |
| 20260505111750 | 73 | 232 | 1.0 | 2.0 | 0.00 | 0.00 | 0.00 | 92 | 1008.9 |
| 20260505111650 | 73 | 206 | 1.0 | 2.0 | 0.00 | 0.00 | 0.00 | 93 | 1008.9 |
| 20260505111522 | 73 | 258 | 1.0 | 3.0 | 0.00 | 0.00 | 0.00 | 92 | 1008.9 |
| 20260505111421 | 73 | 0 | 1.0 | 3.0 | 0.00 | 0.00 | 0.00 | 92 | 1009.0 |
| 20260505111321 | 73 | 261 | 1.0 | 3.0 | 0.00 | 0.00 | 0.00 | 92 | 1009.0 |
| 20260505111249 | 73 | 261 | 1.0 | 3.0 | 0.00 | 0.00 | 0.00 | 92 | 1008.9 |
| 20260505111221 | 73 | 231 | 1.0 | 3.0 | 0.00 | 0.00 | 0.00 | 92 | 1008.9 |
| 20260505111122 | 73 | 98 | 1.0 | 3.0 | 0.00 | 0.00 | 0.00 | 92 | 1008.9 |
| 20260505111022 | 73 | 156 | 1.0 | 3.0 | 0.00 | 0.00 | 0.00 | 92 | 1008.9 |
| 20260505110921 | 73 | 203 | 1.0 | 3.0 | 0.00 | 0.00 | 0.00 | 92 | 1008.9 |
| 20260505110822 | 73 | 198 | 1.0 | 3.0 | 0.00 | 0.00 | 0.00 | 92 | 1008.9 |
| 20260505110749 | 73 | 55 | 1.0 | 3.0 | 0.00 | 0.00 | 0.00 | 93 | 1008.9 |
| 20260505110721 | 73 | 103 | 1.0 | 3.0 | 0.00 | 0.00 | 0.00 | 93 | 1008.9 |
| 20260505110621 | 73 | 56 | 1.0 | 3.0 | 0.00 | 0.00 | 0.00 | 93 | 1008.9 |
| 20260505110522 | 73 | 221 | 1.0 | 3.0 | 0.00 | 0.00 | 0.00 | 93 | 1008.9 |
| 20260505110455 | 73 | 76 | 1.0 | 3.0 | 0.00 | 0.00 | 0.00 | 92 | 1008.9 |
| 20260505110422 | 73 | 174 | 1.0 | 3.0 | 0.00 | 0.00 | 0.00 | 93 | 1008.9 |
| 20260505110341 | 73 | 192 | 1.0 | 3.0 | 0.00 | 0.00 | 0.00 | 93 | 1008.9 |
| 20260505110207 | 73 | 197 | 1.0 | 3.0 | 0.00 | 0.00 | 0.00 | 92 | 1008.9 |
| 20260505102208 | 73 | 155 | 1.0 | 5.0 | 0.00 | 0.00 | 0.00 | 92 | 1008.9 |
| 20260505102151 | 73 | 202 | 1.0 | 5.0 | 0.00 | 0.00 | 0.00 | 92 | 1008.9 |
| 20260505102108 | 73 | 201 | 1.0 | 5.0 | 0.00 | 0.00 | 0.00 | 91 | 1008.9 |
| 20260505102007 | 73 | 199 | 1.0 | 5.0 | 0.00 | 0.00 | 0.00 | 91 | 1008.9 |
| 20260505101907 | 73 | 210 | 1.0 | 5.0 | 0.00 | 0.00 | 0.00 | 91 | 1008.9 |
| 20260505101758 | 73 | 193 | 1.0 | 5.0 | 0.00 | 0.00 | 0.00 | 91 | 1008.8 |
| 20260505101651 | 73 | 338 | 1.0 | 5.0 | 0.00 | 0.00 | 0.00 | 91 | 1008.8 |
| 20260505101632 | 73 | 160 | 1.0 | 2.0 | 0.00 | 0.00 | 0.00 | 91 | 1008.6 |
| 20260505101559 | 73 | 197 | 1.0 | 5.0 | 0.00 | 0.00 | 0.00 | 91 | 1008.8 |
| 20260505101516 | 73 | 85 | 1.0 | 5.0 | 0.00 | 0.00 | 0.00 | 91 | 1008.8 |
| 20260505101351 | 73 | 168 | 1.0 | 5.0 | 0.00 | 0.00 | 0.00 | 92 | 1008.7 |
| 20260505101301 | 73 | 187 | 1.0 | 2.0 | 0.00 | 0.00 | 0.00 | 92 | 1008.7 |
| 20260505101256 | 73 | 204 | 1.0 | 2.0 | 0.00 | 0.00 | 0.00 | 91 | 1008.6 |
| 20260505101053 | 73 | 176 | 1.0 | 3.0 | 0.00 | 0.00 | 0.00 | 91 | 1008.6 |
| 20260505100953 | 73 | 164 | 1.0 | 3.0 | 0.00 | 0.00 | 0.00 | 91 | 1008.5 |
| 20260505100852 | 73 | 72 | 1.0 | 3.0 | 0.00 | 0.00 | 0.00 | 91 | 1008.5 |
| 20260505100752 | 73 | 91 | 1.0 | 3.0 | 0.00 | 0.00 | 0.00 | 91 | 1008.5 |
| 20260505100650 | 73 | 212 | 1.0 | 3.0 | 0.00 | 0.00 | 0.00 | 91 | 1008.6 |
| 20260505100553 | 73 | 196 | 1.0 | 3.0 | 0.00 | 0.00 | 0.00 | 91 | 1008.6 |
| 20260505100452 | 73 | 180 | 1.0 | 3.0 | 0.00 | 0.00 | 0.00 | 91 | 1008.6 |
| 20260505100351 | 73 | 100 | 1.0 | 3.0 | 0.00 | 0.00 | 0.00 | 91 | 1008.6 |
| 20260505100251 | 73 | 84 | 1.0 | 3.0 | 0.00 | 0.00 | 0.00 | 91 | 1008.6 |
| 20260505100151 | 73 | 127 | 1.0 | 3.0 | 0.00 | 0.00 | 0.00 | 91 | 1008.6 |
| 20260505100052 | 73 | 219 | 1.0 | 3.0 | 0.00 | 0.00 | 0.00 | 91 | 1008.6 |
| 20260505095951 | 73 | 190 | 1.0 | 3.0 | 0.00 | 0.00 | 0.00 | 91 | 1008.6 |
| 20260505095900 | 73 | 89 | 2.0 | 4.0 | 0.00 | 0.00 | 0.00 | 91 | 1008.6 |
| 20260505095851 | 73 | 214 | 1.0 | 4.0 | 0.00 | 0.00 | 0.00 | 91 | 1008.6 |
| 20260505095751 | 73 | 205 | 2.0 | 4.0 | 0.00 | 0.00 | 0.00 | 91 | 1008.6 |
| 20260505095742 | 73 | 89 | 2.0 | 4.0 | 0.00 | 0.00 | 0.00 | 91 | 1008.6 |
| 20260505095508 | 73 | 146 | 2.0 | 4.0 | 0.00 | 0.00 | 0.00 | 91 | 1008.5 |
| 20260505095353 | 73 | 228 | 1.0 | 4.0 | 0.00 | 0.00 | 0.00 | 91 | 1008.5 |
| 20260505095252 | 73 | 173 | 2.0 | 4.0 | 0.00 | 0.00 | 0.00 | 91 | 1008.5 |
| 20260505095151 | 73 | 198 | 2.0 | 4.0 | 0.00 | 0.00 | 0.00 | 91 | 1008.6 |
| 20260505095122 | 73 | 148 | 2.0 | 4.0 | 0.00 | 0.00 | 0.00 | 91 | 1008.6 |
| 20260505095051 | 73 | 181 | 1.0 | 4.0 | 0.00 | 0.00 | 0.00 | 91 | 1008.6 |
| 20260505094951 | 73 | 192 | 1.0 | 4.0 | 0.00 | 0.00 | 0.00 | 91 | 1008.7 |
| 20260505094851 | 73 | 246 | 1.0 | 2.0 | 0.00 | 0.00 | 0.00 | 91 | 1008.8 |
| 20260505094752 | 73 | 195 | 1.0 | 2.0 | 0.00 | 0.00 | 0.00 | 91 | 1008.8 |
| 20260505094638 | 73 | 175 | 1.0 | 2.0 | 0.00 | 0.00 | 0.00 | 91 | 1008.8 |
| 20260505094622 | 73 | 176 | 1.0 | 2.0 | 0.00 | 0.00 | 0.00 | 91 | 1008.8 |
| 20260505094523 | 73 | 188 | 1.0 | 2.0 | 0.00 | 0.00 | 0.00 | 91 | 1008.9 |
| 20260505094422 | 73 | 152 | 1.0 | 2.0 | 0.00 | 0.00 | 0.00 | 91 | 1008.8 |
| 20260505094308 | 73 | 164 | 1.0 | 2.0 | 0.00 | 0.00 | 0.00 | 91 | 1008.8 |
| 20260505094208 | 73 | 121 | 1.0 | 2.0 | 0.00 | 0.00 | 0.00 | 91 | 1008.8 |
| 20260505094108 | 73 | 169 | 1.0 | 2.0 | 0.00 | 0.00 | 0.00 | 91 | 1008.8 |
| 20260505093951 | 73 | 202 | 1.0 | 2.0 | 0.00 | 0.00 | 0.00 | 91 | 1008.9 |
| 20260505093837 | 73 | 202 | 1.0 | 2.0 | 0.00 | 0.00 | 0.00 | 91 | 1008.9 |
| 20260505093723 | 73 | 154 | 1.0 | 2.0 | 0.00 | 0.00 | 0.00 | 91 | 1008.9 |
| 20260505093607 | 73 | 212 | 1.0 | 2.0 | 0.00 | 0.00 | 0.00 | 91 | 1008.9 |
| 20260505093550 | 73 | 111 | 1.0 | 2.0 | 0.00 | 0.00 | 0.00 | 91 | 1009.0 |
| 20260505093454 | 73 | 211 | 1.0 | 2.0 | 0.00 | 0.00 | 0.00 | 91 | 1009.0 |
| 20260505093352 | 73 | 211 | 1.0 | 2.0 | 0.00 | 0.00 | 0.00 | 91 | 1009.0 |
| 20260505093238 | 73 | 183 | 1.0 | 2.0 | 0.00 | 0.00 | 0.00 | 91 | 1009.0 |
| 20260505093139 | 73 | 109 | 1.0 | 3.0 | 0.00 | 0.00 | 0.00 | 91 | 1009.0 |
| 20260505093038 | 73 | 179 | 1.0 | 3.0 | 0.00 | 0.00 | 0.00 | 91 | 1009.0 |
| 20260505092923 | 73 | 201 | 1.0 | 3.0 | 0.00 | 0.00 | 0.00 | 91 | 1009.0 |
| 20260505092751 | 73 | 157 | 1.0 | 3.0 | 0.00 | 0.00 | 0.00 | 91 | 1009.0 |
| 20260505092639 | 73 | 157 | 1.0 | 3.0 | 0.00 | 0.00 | 0.00 | 91 | 1009.0 |
| 20260505092538 | 72 | 196 | 1.0 | 3.0 | 0.00 | 0.00 | 0.00 | 91 | 1009.0 |
| 20260505092438 | 72 | 138 | 1.0 | 3.0 | 0.00 | 0.00 | 0.00 | 91 | 1009.0 |
| 20260505092338 | 72 | 159 | 1.0 | 3.0 | 0.00 | 0.00 | 0.00 | 91 | 1008.9 |
| 20260505092238 | 72 | 201 | 1.0 | 3.0 | 0.00 | 0.00 | 0.00 | 91 | 1008.9 |
| 20260505092139 | 72 | 73 | 1.0 | 3.0 | 0.00 | 0.00 | 0.00 | 91 | 1008.9 |
| 20260505092023 | 72 | 216 | 1.0 | 3.0 | 0.00 | 0.00 | 0.00 | 91 | 1008.8 |
| 20260505091908 | 72 | 43 | 1.0 | 3.0 | 0.00 | 0.00 | 0.00 | 91 | 1008.8 |
| 20260505091808 | 72 | 356 | 1.0 | 3.0 | 0.00 | 0.00 | 0.00 | 91 | 1008.8 |
| 20260505091654 | 72 | 162 | 1.0 | 3.0 | 0.00 | 0.00 | 0.00 | 91 | 1008.8 |
| 20260505091554 | 72 | 102 | 1.0 | 3.0 | 0.00 | 0.00 | 0.00 | 91 | 1008.8 |
| 20260505091507 | 72 | 209 | 1.0 | 3.0 | 0.00 | 0.00 | 0.00 | 91 | 1008.8 |
| 20260505091457 | 72 | 96 | 1.0 | 2.0 | 0.00 | 0.00 | 0.00 | 91 | 1008.9 |
| 20260505091453 | 72 | 221 | 1.0 | 3.0 | 0.00 | 0.00 | 0.00 | 91 | 1008.8 |
| 20260505091353 | 72 | 217 | 1.0 | 3.0 | 0.00 | 0.00 | 0.00 | 91 | 1008.9 |
| 20260505091337 | 72 | 59 | 1.0 | 2.0 | 0.00 | 0.00 | 0.00 | 91 | 1008.9 |
| 20260505091153 | 72 | 285 | 1.0 | 2.0 | 0.00 | 0.00 | 0.00 | 91 | 1008.9 |
| 20260505091112 | 72 | 86 | 1.0 | 2.0 | 0.00 | 0.00 | 0.00 | 91 | 1008.9 |
| 20260505090953 | 72 | 229 | 1.0 | 2.0 | 0.00 | 0.00 | 0.00 | 91 | 1008.9 |
| 20260505090854 | 72 | 178 | 1.0 | 3.0 | 0.00 | 0.00 | 0.00 | 91 | 1008.9 |
| 20260505090754 | 72 | 197 | 1.0 | 3.0 | 0.00 | 0.00 | 0.00 | 91 | 1008.9 |
| 20260505090653 | 72 | 121 | 1.0 | 3.0 | 0.00 | 0.00 | 0.00 | 91 | 1008.9 |
| 20260505090552 | 72 | 76 | 1.0 | 3.0 | 0.00 | 0.00 | 0.00 | 91 | 1008.9 |
| 20260505090507 | 72 | 99 | 1.0 | 3.0 | 0.00 | 0.00 | 0.00 | 91 | 1008.9 |
| 20260505090438 | 72 | 176 | 1.0 | 3.0 | 0.00 | 0.00 | 0.00 | 91 | 1009.0 |
| 20260505090339 | 72 | 92 | 1.0 | 3.0 | 0.00 | 0.00 | 0.00 | 91 | 1009.0 |
| 20260505090238 | 72 | 189 | 1.0 | 3.0 | 0.00 | 0.00 | 0.00 | 91 | 1009.0 |
| 20260505090138 | 72 | 217 | 1.0 | 3.0 | 0.00 | 0.00 | 0.00 | 91 | 1009.0 |
| 20260505090038 | 72 | 171 | 1.0 | 3.0 | 0.00 | 0.00 | 0.00 | 91 | 1008.9 |
| 20260505090007 | 72 | 166 | 1.0 | 3.0 | 0.00 | 0.00 | 0.00 | 91 | 1008.9 |
| 20260505085938 | 72 | 205 | 1.0 | 3.0 | 0.00 | 0.00 | 0.00 | 91 | 1008.9 |
| 20260505085839 | 72 | 218 | 1.0 | 3.0 | 0.00 | 0.00 | 0.00 | 91 | 1008.9 |
| 20260505085654 | 72 | 106 | 1.0 | 3.0 | 0.00 | 0.00 | 0.00 | 91 | 1008.9 |
| 20260505085553 | 72 | 153 | 1.0 | 3.0 | 0.00 | 0.00 | 0.00 | 91 | 1008.9 |
| 20260505085457 | 72 | 208 | 1.0 | 3.0 | 0.00 | 0.00 | 0.00 | 92 | 1008.9 |
| 20260505085451 | 72 | 202 | 1.0 | 3.0 | 0.00 | 0.00 | 0.00 | 92 | 1008.9 |
| 20260505085354 | 72 | 229 | 1.0 | 3.0 | 0.00 | 0.00 | 0.00 | 92 | 1008.9 |
| 20260505085254 | 72 | 286 | 1.0 | 3.0 | 0.00 | 0.00 | 0.00 | 92 | 1008.9 |
| 20260505085154 | 72 | 79 | 1.0 | 3.0 | 0.00 | 0.00 | 0.00 | 92 | 1008.9 |
| 20260505085054 | 72 | 234 | 1.0 | 3.0 | 0.00 | 0.00 | 0.00 | 92 | 1008.9 |
| 20260505084952 | 72 | 203 | 1.0 | 3.0 | 0.00 | 0.00 | 0.00 | 92 | 1008.8 |
| 20260505084852 | 72 | 155 | 1.0 | 3.0 | 0.00 | 0.00 | 0.00 | 92 | 1008.8 |
| 20260505084753 | 72 | 246 | 1.0 | 4.0 | 0.00 | 0.00 | 0.00 | 91 | 1008.8 |
| 20260505084639 | 72 | 220 | 1.0 | 4.0 | 0.00 | 0.00 | 0.00 | 91 | 1008.8 |
| 20260505084539 | 72 | 28 | 1.0 | 4.0 | 0.00 | 0.00 | 0.00 | 91 | 1008.8 |
| 20260505084423 | 72 | 210 | 1.0 | 4.0 | 0.00 | 0.00 | 0.00 | 91 | 1008.8 |
| 20260505084324 | 72 | 245 | 1.0 | 4.0 | 0.00 | 0.00 | 0.00 | 91 | 1008.8 |
| 20260505084224 | 72 | 46 | 1.0 | 4.0 | 0.00 | 0.00 | 0.00 | 91 | 1008.7 |
| 20260505084124 | 72 | 150 | 1.0 | 4.0 | 0.00 | 0.00 | 0.00 | 91 | 1008.7 |
| 20260505084023 | 72 | 142 | 1.0 | 4.0 | 0.00 | 0.00 | 0.00 | 91 | 1008.7 |
| 20260505083923 | 72 | 187 | 1.0 | 4.0 | 0.00 | 0.00 | 0.00 | 92 | 1008.8 |
| 20260505083824 | 72 | 185 | 1.0 | 4.0 | 0.00 | 0.00 | 0.00 | 91 | 1008.8 |
| 20260505083709 | 72 | 251 | 1.0 | 2.0 | 0.00 | 0.00 | 0.00 | 91 | 1008.8 |
| 20260505083614 | 72 | 244 | 1.0 | 2.0 | 0.00 | 0.00 | 0.00 | 91 | 1008.8 |
| 20260505083509 | 72 | 171 | 1.0 | 2.0 | 0.00 | 0.00 | 0.00 | 91 | 1008.8 |
| 20260505083422 | 72 | 99 | 1.0 | 3.0 | 0.00 | 0.00 | 0.00 | 91 | 1008.8 |
| 20260505083409 | 72 | 162 | 1.0 | 3.0 | 0.00 | 0.00 | 0.00 | 91 | 1008.8 |
| 20260505083254 | 72 | 71 | 1.0 | 3.0 | 0.00 | 0.00 | 0.00 | 91 | 1008.9 |
| 20260505083139 | 72 | 143 | 1.0 | 3.0 | 0.00 | 0.00 | 0.00 | 91 | 1008.9 |
| 20260505083131 | 72 | 217 | 1.0 | 3.0 | 0.00 | 0.00 | 0.00 | 91 | 1008.9 |
| 20260505083024 | 72 | 262 | 1.0 | 3.0 | 0.00 | 0.00 | 0.00 | 91 | 1008.9 |
| 20260505083013 | 72 | 208 | 1.0 | 3.0 | 0.00 | 0.00 | 0.00 | 91 | 1008.9 |
| 20260505082824 | 72 | 183 | 1.0 | 4.0 | 0.00 | 0.00 | 0.00 | 91 | 1008.9 |
| 20260505082723 | 72 | 58 | 1.0 | 4.0 | 0.00 | 0.00 | 0.00 | 91 | 1008.9 |
| 20260505082629 | 72 | 186 | 1.0 | 4.0 | 0.00 | 0.00 | 0.00 | 91 | 1008.9 |
| 20260505082624 | 72 | 251 | 1.0 | 4.0 | 0.00 | 0.00 | 0.00 | 91 | 1008.9 |
| 20260505082518 | 72 | 210 | 1.0 | 4.0 | 0.00 | 0.00 | 0.00 | 91 | 1008.9 |
| 20260505082513 | 72 | 186 | 1.0 | 4.0 | 0.00 | 0.00 | 0.00 | 91 | 1008.9 |
| 20260505082309 | 72 | 0 | 1.0 | 4.0 | 0.00 | 0.00 | 0.00 | 91 | 1009.0 |
| 20260505082154 | 72 | 219 | 1.0 | 4.0 | 0.00 | 0.00 | 0.00 | 91 | 1009.0 |
| 20260505082055 | 72 | 209 | 1.0 | 4.0 | 0.00 | 0.00 | 0.00 | 91 | 1009.0 |
| 20260505081954 | 72 | 188 | 1.0 | 4.0 | 0.00 | 0.00 | 0.00 | 91 | 1009.0 |
| 20260505081908 | 72 | 169 | 1.0 | 4.0 | 0.00 | 0.00 | 0.00 | 91 | 1009.0 |
| 20260505081854 | 72 | 167 | 1.0 | 4.0 | 0.00 | 0.00 | 0.00 | 91 | 1009.0 |
| 20260505081754 | 72 | 178 | 1.0 | 4.0 | 0.00 | 0.00 | 0.00 | 91 | 1009.0 |
| 20260505081654 | 72 | 346 | 1.0 | 3.0 | 0.00 | 0.00 | 0.00 | 91 | 1009.0 |
| 20260505081553 | 72 | 200 | 1.0 | 3.0 | 0.00 | 0.00 | 0.00 | 91 | 1009.0 |
| 20260505081454 | 72 | 77 | 1.0 | 3.0 | 0.00 | 0.00 | 0.00 | 91 | 1009.1 |
| 20260505081407 | 72 | 246 | 1.0 | 3.0 | 0.00 | 0.00 | 0.00 | 90 | 1009.1 |
| 20260505081359 | 72 | 68 | 1.0 | 3.0 | 0.00 | 0.00 | 0.00 | 90 | 1009.1 |
| 20260505081239 | 72 | 189 | 1.0 | 3.0 | 0.00 | 0.00 | 0.00 | 90 | 1009.1 |
| 20260505081129 | 72 | 68 | 1.0 | 3.0 | 0.00 | 0.00 | 0.00 | 90 | 1009.1 |
| 20260505081124 | 72 | 280 | 1.0 | 3.0 | 0.00 | 0.00 | 0.00 | 90 | 1009.1 |
| 20260505081024 | 72 | 214 | 1.0 | 3.0 | 0.00 | 0.00 | 0.00 | 90 | 1009.0 |
| 20260505081013 | 72 | 222 | 1.0 | 3.0 | 0.00 | 0.00 | 0.00 | 90 | 1009.1 |
| 20260505080824 | 72 | 31 | 1.0 | 3.0 | 0.00 | 0.00 | 0.00 | 90 | 1009.1 |
| 20260505080724 | 72 | 142 | 1.0 | 2.0 | 0.00 | 0.00 | 0.00 | 90 | 1009.1 |
| 20260505080625 | 72 | 170 | 1.0 | 2.0 | 0.00 | 0.00 | 0.00 | 90 | 1009.1 |
| 20260505080524 | 72 | 0 | 1.0 | 2.0 | 0.00 | 0.00 | 0.00 | 90 | 1009.2 |
| 20260505080354 | 72 | 277 | 1.0 | 2.0 | 0.00 | 0.00 | 0.00 | 90 | 1009.2 |
| 20260505075954 | 72 | 181 | 1.0 | 3.0 | 0.00 | 0.00 | 0.00 | 90 | 1009.2 |
| 20260505075809 | 72 | 180 | 1.0 | 3.0 | 0.00 | 0.00 | 0.00 | 90 | 1009.2 |
| 20260505075753 | 72 | 174 | 1.0 | 3.0 | 0.00 | 0.00 | 0.00 | 90 | 1009.2 |
| 20260505075709 | 72 | 174 | 1.0 | 3.0 | 0.00 | 0.00 | 0.00 | 90 | 1009.2 |
| 20260505075609 | 72 | 134 | 1.0 | 3.0 | 0.00 | 0.00 | 0.00 | 90 | 1009.2 |
| 20260505075454 | 72 | 226 | 1.0 | 3.0 | 0.00 | 0.00 | 0.00 | 90 | 1009.2 |
| 20260505075355 | 72 | 148 | 1.0 | 3.0 | 0.00 | 0.00 | 0.00 | 90 | 1009.2 |
| 20260505075254 | 72 | 213 | 1.0 | 2.0 | 0.00 | 0.00 | 0.00 | 90 | 1009.2 |
| 20260505075223 | 72 | 144 | 1.0 | 2.0 | 0.00 | 0.00 | 0.00 | 90 | 1009.2 |
| 20260505075154 | 72 | 144 | 1.0 | 2.0 | 0.00 | 0.00 | 0.00 | 90 | 1009.2 |
| 20260505075053 | 72 | 199 | 1.0 | 2.0 | 0.00 | 0.00 | 0.00 | 90 | 1009.2 |
| 20260505074953 | 72 | 38 | 1.0 | 2.0 | 0.00 | 0.00 | 0.00 | 90 | 1009.2 |
| 20260505074854 | 72 | 173 | 1.0 | 2.0 | 0.00 | 0.00 | 0.00 | 90 | 1009.2 |
| 20260505074753 | 72 | 148 | 1.0 | 2.0 | 0.00 | 0.00 | 0.00 | 90 | 1009.2 |
| 20260505074723 | 72 | 204 | 1.0 | 2.0 | 0.00 | 0.00 | 0.00 | 90 | 1009.2 |
| 20260505074653 | 72 | 187 | 1.0 | 2.0 | 0.00 | 0.00 | 0.00 | 90 | 1009.2 |
| 20260505074553 | 72 | 211 | 1.0 | 2.0 | 0.00 | 0.00 | 0.00 | 90 | 1009.2 |
| 20260505074453 | 72 | 66 | 1.0 | 2.0 | 0.00 | 0.00 | 0.00 | 90 | 1009.2 |
| 20260505074353 | 72 | 199 | 1.0 | 2.0 | 0.00 | 0.00 | 0.00 | 90 | 1009.2 |
| 20260505074253 | 72 | 303 | 1.0 | 2.0 | 0.00 | 0.00 | 0.00 | 90 | 1009.3 |
| 20260505074224 | 72 | 303 | 1.0 | 4.0 | 0.00 | 0.00 | 0.00 | 90 | 1009.3 |
| 20260505074153 | 72 | 225 | 1.0 | 4.0 | 0.00 | 0.00 | 0.00 | 90 | 1009.3 |
| 20260505074053 | 72 | 300 | 1.0 | 4.0 | 0.00 | 0.00 | 0.00 | 90 | 1009.2 |
| 20260505073953 | 72 | 62 | 1.0 | 4.0 | 0.00 | 0.00 | 0.00 | 90 | 1009.2 |
| 20260505073841 | 72 | 242 | 1.0 | 4.0 | 0.00 | 0.00 | 0.00 | 90 | 1009.2 |
| 20260505073740 | 72 | 168 | 1.0 | 4.0 | 0.00 | 0.00 | 0.00 | 90 | 1009.3 |
| 20260505073724 | 72 | 183 | 1.0 | 4.0 | 0.00 | 0.00 | 0.00 | 90 | 1009.3 |
| 20260505073640 | 72 | 18 | 1.0 | 4.0 | 0.00 | 0.00 | 0.00 | 90 | 1009.3 |
| 20260505073524 | 72 | 0 | 1.0 | 4.0 | 0.00 | 0.00 | 0.00 | 90 | 1009.3 |
| 20260505073409 | 72 | 140 | 1.0 | 4.0 | 0.00 | 0.00 | 0.00 | 90 | 1009.3 |
| 20260505073254 | 72 | 296 | 1.0 | 4.0 | 0.00 | 0.00 | 0.00 | 90 | 1009.3 |
| 20260505073223 | 72 | 189 | 1.0 | 3.0 | 0.00 | 0.00 | 0.00 | 90 | 1009.3 |
| 20260505073154 | 72 | 151 | 1.0 | 3.0 | 0.00 | 0.00 | 0.00 | 90 | 1009.3 |
| 20260505073054 | 72 | 161 | 1.0 | 3.0 | 0.00 | 0.00 | 0.00 | 90 | 1009.3 |
| 20260505072954 | 72 | 254 | 1.0 | 4.0 | 0.00 | 0.00 | 0.00 | 90 | 1009.4 |
| 20260505072854 | 72 | 82 | 1.0 | 4.0 | 0.00 | 0.00 | 0.00 | 90 | 1009.4 |
| 20260505072754 | 72 | 98 | 2.0 | 4.0 | 0.00 | 0.00 | 0.00 | 89 | 1009.4 |
| 20260505072708 | 72 | 191 | 1.0 | 4.0 | 0.00 | 0.00 | 0.00 | 89 | 1009.4 |
| 20260505072654 | 72 | 166 | 2.0 | 4.0 | 0.00 | 0.00 | 0.00 | 89 | 1009.4 |
| 20260505072554 | 72 | 12 | 2.0 | 5.0 | 0.00 | 0.00 | 0.00 | 90 | 1009.4 |
| 20260505072440 | 72 | 142 | 2.0 | 5.0 | 0.00 | 0.00 | 0.00 | 90 | 1009.4 |
| 20260505072429 | 72 | 231 | 1.0 | 5.0 | 0.00 | 0.00 | 0.00 | 90 | 1009.5 |
| 20260505072325 | 72 | 173 | 2.0 | 5.0 | 0.00 | 0.00 | 0.00 | 90 | 1009.4 |
| 20260505072315 | 72 | 231 | 1.0 | 5.0 | 0.00 | 0.00 | 0.00 | 90 | 1009.5 |
| 20260505072110 | 72 | 106 | 1.0 | 5.0 | 0.00 | 0.00 | 0.00 | 90 | 1009.5 |
| 20260505071955 | 72 | 205 | 1.0 | 5.0 | 0.00 | 0.00 | 0.00 | 90 | 1009.5 |
| 20260505071855 | 72 | 155 | 1.0 | 5.0 | 0.00 | 0.00 | 0.00 | 90 | 1009.5 |
| 20260505071753 | 72 | 0 | 1.0 | 5.0 | 0.00 | 0.00 | 0.00 | 90 | 1009.5 |
| 20260505071657 | 72 | 75 | 1.0 | 5.0 | 0.00 | 0.00 | 0.00 | 90 | 1009.5 |
| 20260505071652 | 72 | 90 | 1.0 | 5.0 | 0.00 | 0.00 | 0.00 | 90 | 1009.5 |
| 20260505071552 | 72 | 193 | 1.0 | 4.0 | 0.00 | 0.00 | 0.00 | 90 | 1009.5 |
| 20260505071528 | 72 | 155 | 1.0 | 4.0 | 0.00 | 0.00 | 0.00 | 90 | 1009.6 |
| 20260505071524 | 72 | 142 | 1.0 | 4.0 | 0.00 | 0.00 | 0.00 | 90 | 1009.6 |
| 20260505071520 | 72 | 281 | 1.0 | 4.0 | 0.00 | 0.00 | 0.00 | 90 | 1009.6 |
| 20260505071515 | 72 | 187 | 1.0 | 4.0 | 0.00 | 0.00 | 0.00 | 90 | 1009.6 |
| 20260505071511 | 72 | 157 | 1.0 | 4.0 | 0.00 | 0.00 | 0.00 | 90 | 1009.5 |
| 20260505071044 | 72 | 83 | 1.0 | 4.0 | 0.00 | 0.00 | 0.00 | 90 | 1009.6 |
| 20260505070944 | 72 | 167 | 1.0 | 4.0 | 0.00 | 0.00 | 0.00 | 90 | 1009.7 |
| 20260505070841 | 72 | 138 | 1.0 | 4.0 | 0.00 | 0.00 | 0.00 | 90 | 1009.7 |
| 20260505070734 | 72 | 167 | 1.0 | 4.0 | 0.00 | 0.00 | 0.00 | 90 | 1009.7 |
| 20260505070654 | 72 | 93 | 1.0 | 4.0 | 0.00 | 0.00 | 0.00 | 90 | 1009.7 |
| 20260505070634 | 72 | 56 | 1.0 | 4.0 | 0.00 | 0.00 | 0.00 | 90 | 1009.7 |
| 20260505070534 | 72 | 129 | 1.0 | 4.0 | 0.00 | 0.00 | 0.00 | 90 | 1009.7 |
| 20260505070434 | 72 | 0 | 1.0 | 4.0 | 0.00 | 0.00 | 0.00 | 90 | 1009.7 |
| 20260505070332 | 72 | 79 | 1.0 | 4.0 | 0.00 | 0.00 | 0.00 | 89 | 1009.7 |
| 20260505070231 | 72 | 79 | 1.0 | 3.0 | 0.00 | 0.00 | 0.00 | 89 | 1009.7 |
| 20260505070152 | 72 | 187 | 1.0 | 3.0 | 0.00 | 0.00 | 0.00 | 89 | 1009.7 |
| 20260505070132 | 72 | 116 | 1.0 | 3.0 | 0.00 | 0.00 | 0.00 | 89 | 1009.7 |
| 20260505070032 | 72 | 269 | 1.0 | 3.0 | 0.00 | 0.00 | 0.00 | 89 | 1009.7 |
| 20260505065926 | 72 | 206 | 1.0 | 3.0 | 0.00 | 0.00 | 0.00 | 89 | 1009.7 |
| 20260505065826 | 72 | 0 | 1.0 | 3.0 | 0.00 | 0.00 | 0.00 | 89 | 1009.7 |
| 20260505065726 | 72 | 179 | 1.0 | 3.0 | 0.00 | 0.00 | 0.00 | 89 | 1009.8 |
| 20260505065651 | 72 | 195 | 1.0 | 3.0 | 0.00 | 0.00 | 0.00 | 89 | 1009.8 |
| 20260505065619 | 72 | 196 | 1.0 | 3.0 | 0.00 | 0.00 | 0.00 | 89 | 1009.8 |
| 20260505065511 | 72 | 205 | 1.0 | 3.0 | 0.00 | 0.00 | 0.00 | 89 | 1009.8 |
| 20260505065415 | 72 | 74 | 1.0 | 5.0 | 0.00 | 0.00 | 0.00 | 89 | 1009.9 |
| 20260505065408 | 72 | 165 | 1.0 | 5.0 | 0.00 | 0.00 | 0.00 | 89 | 1009.9 |
| 20260505065308 | 72 | 0 | 1.0 | 5.0 | 0.00 | 0.00 | 0.00 | 89 | 1009.9 |
| 20260505065255 | 72 | 179 | 1.0 | 5.0 | 0.00 | 0.00 | 0.00 | 89 | 1009.9 |
| 20260505065105 | 72 | 0 | 1.0 | 5.0 | 0.00 | 0.00 | 0.00 | 89 | 1009.9 |
| 20260505064959 | 72 | 211 | 1.0 | 5.0 | 0.00 | 0.00 | 0.00 | 89 | 1009.9 |
| 20260505064856 | 72 | 189 | 1.0 | 5.0 | 0.00 | 0.00 | 0.00 | 89 | 1010.0 |
| 20260505064755 | 72 | 0 | 1.0 | 5.0 | 0.00 | 0.00 | 0.00 | 89 | 1010.0 |
| 20260505064649 | 72 | 183 | 1.0 | 5.0 | 0.00 | 0.00 | 0.00 | 89 | 1010.0 |
| 20260505064553 | 72 | 64 | 1.0 | 5.0 | 0.00 | 0.00 | 0.00 | 89 | 1010.0 |
| 20260505064452 | 72 | 0 | 1.0 | 5.0 | 0.00 | 0.00 | 0.00 | 89 | 1010.0 |
| 20260505064350 | 72 | 290 | 1.0 | 4.0 | 0.00 | 0.00 | 0.00 | 89 | 1010.0 |
| 20260505064247 | 71 | 123 | 1.0 | 4.0 | 0.00 | 0.00 | 0.00 | 89 | 1010.0 |
| 20260505064147 | 71 | 204 | 2.0 | 4.0 | 0.00 | 0.00 | 0.00 | 89 | 1010.0 |
| 20260505064041 | 71 | 163 | 2.0 | 4.0 | 0.00 | 0.00 | 0.00 | 89 | 1010.0 |
| 20260505063939 | 71 | 174 | 2.0 | 4.0 | 0.00 | 0.00 | 0.00 | 89 | 1010.1 |
| 20260505063839 | 71 | 61 | 1.0 | 4.0 | 0.00 | 0.00 | 0.00 | 89 | 1010.1 |
| 20260505063729 | 71 | 147 | 2.0 | 4.0 | 0.00 | 0.00 | 0.00 | 89 | 1010.1 |
| 20260505063643 | 71 | 54 | 1.0 | 4.0 | 0.00 | 0.00 | 0.00 | 89 | 1010.1 |
| 20260505063629 | 71 | 146 | 1.0 | 4.0 | 0.00 | 0.00 | 0.00 | 89 | 1010.1 |
| 20260505063521 | 71 | 154 | 1.0 | 4.0 | 0.00 | 0.00 | 0.00 | 89 | 1010.1 |
| 20260505063414 | 71 | 231 | 1.0 | 4.0 | 0.00 | 0.00 | 0.00 | 90 | 1010.1 |
| 20260505063308 | 71 | 116 | 1.0 | 4.0 | 0.00 | 0.00 | 0.00 | 90 | 1010.1 |
| 20260505063208 | 71 | 184 | 1.0 | 4.0 | 0.00 | 0.00 | 0.00 | 90 | 1010.3 |
| 20260505063130 | 71 | 73 | 1.0 | 4.0 | 0.00 | 0.00 | 0.00 | 90 | 1010.3 |
| 20260505063053 | 71 | 204 | 1.0 | 4.0 | 0.00 | 0.00 | 0.00 | 90 | 1010.3 |
| 20260505062953 | 71 | 188 | 1.0 | 4.0 | 0.00 | 0.00 | 0.00 | 90 | 1010.3 |
| 20260505062853 | 71 | 194 | 1.0 | 4.0 | 0.00 | 0.00 | 0.00 | 90 | 1010.3 |
| 20260505062753 | 71 | 147 | 1.0 | 4.0 | 0.00 | 0.00 | 0.00 | 90 | 1010.3 |
| 20260505062650 | 71 | 190 | 1.0 | 4.0 | 0.00 | 0.00 | 0.00 | 89 | 1010.3 |
| 20260505062619 | 71 | 218 | 1.0 | 4.0 | 0.00 | 0.00 | 0.00 | 89 | 1010.3 |
| 20260505062550 | 71 | 170 | 1.0 | 4.0 | 0.00 | 0.00 | 0.00 | 89 | 1010.3 |
| 20260505062450 | 71 | 195 | 1.0 | 4.0 | 0.00 | 0.00 | 0.00 | 89 | 1010.3 |
| 20260505062349 | 71 | 0 | 1.0 | 4.0 | 0.00 | 0.00 | 0.00 | 89 | 1010.3 |
| 20260505062244 | 71 | 177 | 1.0 | 5.0 | 0.00 | 0.00 | 0.00 | 89 | 1010.3 |
| 20260505062145 | 71 | 65 | 2.0 | 6.0 | 0.00 | 0.00 | 0.00 | 89 | 1010.3 |
| 20260505062119 | 71 | 347 | 2.0 | 6.0 | 0.00 | 0.00 | 0.00 | 89 | 1010.3 |
| 20260505062045 | 71 | 227 | 2.0 | 6.0 | 0.00 | 0.00 | 0.00 | 89 | 1010.3 |
| 20260505061944 | 71 | 162 | 2.0 | 6.0 | 0.00 | 0.00 | 0.00 | 89 | 1010.3 |
| 20260505061844 | 71 | 214 | 2.0 | 6.0 | 0.00 | 0.00 | 0.00 | 89 | 1010.3 |
| 20260505061744 | 71 | 182 | 2.0 | 6.0 | 0.00 | 0.00 | 0.00 | 89 | 1010.3 |
| 20260505061644 | 71 | 140 | 1.0 | 6.0 | 0.00 | 0.00 | 0.00 | 89 | 1010.3 |
| 20260505061619 | 71 | 61 | 1.0 | 6.0 | 0.00 | 0.00 | 0.00 | 89 | 1010.3 |
| 20260505061544 | 71 | 209 | 1.0 | 6.0 | 0.00 | 0.00 | 0.00 | 89 | 1010.3 |
| 20260505061444 | 71 | 177 | 1.0 | 6.0 | 0.00 | 0.00 | 0.00 | 89 | 1010.3 |
| 20260505061344 | 71 | 356 | 1.0 | 6.0 | 0.00 | 0.00 | 0.00 | 90 | 1010.3 |
| 20260505061241 | 71 | 220 | 1.0 | 6.0 | 0.00 | 0.00 | 0.00 | 90 | 1010.3 |
| 20260505061141 | 71 | 189 | 1.0 | 4.0 | 0.00 | 0.00 | 0.00 | 90 | 1010.4 |
| 20260505061117 | 71 | 110 | 1.0 | 3.0 | 0.00 | 0.00 | 0.00 | 90 | 1010.4 |
| 20260505061041 | 71 | 112 | 1.0 | 3.0 | 0.00 | 0.00 | 0.00 | 90 | 1010.4 |
| 20260505060938 | 71 | 172 | 1.0 | 3.0 | 0.00 | 0.00 | 0.00 | 90 | 1010.4 |
| 20260505060838 | 71 | 105 | 1.0 | 3.0 | 0.00 | 0.00 | 0.00 | 90 | 1010.4 |
| 20260505060738 | 71 | 206 | 1.0 | 4.0 | 0.00 | 0.00 | 0.00 | 89 | 1010.4 |
| 20260505060638 | 71 | 43 | 1.0 | 4.0 | 0.00 | 0.00 | 0.00 | 89 | 1010.4 |
| 20260505060617 | 71 | 271 | 1.0 | 4.0 | 0.00 | 0.00 | 0.00 | 89 | 1010.4 |
| 20260505060535 | 71 | 197 | 1.0 | 4.0 | 0.00 | 0.00 | 0.00 | 89 | 1010.4 |
| 20260505060435 | 71 | 113 | 1.0 | 6.0 | 0.00 | 0.00 | 0.00 | 89 | 1010.4 |
| 20260505060343 | 71 | 96 | 1.0 | 6.0 | 0.00 | 0.00 | 0.00 | 89 | 1010.3 |
| 20260505060335 | 71 | 102 | 1.0 | 6.0 | 0.00 | 0.00 | 0.00 | 89 | 1010.3 |
| 20260505060235 | 71 | 282 | 1.0 | 6.0 | 0.00 | 0.00 | 0.00 | 89 | 1010.3 |
| 20260505060222 | 71 | 182 | 1.0 | 6.0 | 0.00 | 0.00 | 0.00 | 89 | 1010.3 |
| 20260505060030 | 71 | 236 | 1.0 | 6.0 | 0.00 | 0.00 | 0.00 | 89 | 1010.3 |
| 20260505055929 | 71 | 195 | 1.0 | 6.0 | 0.00 | 0.00 | 0.00 | 90 | 1010.3 |
| 20260505055829 | 71 | 118 | 1.0 | 6.0 | 0.00 | 0.00 | 0.00 | 89 | 1010.3 |
| 20260505055729 | 71 | 243 | 1.0 | 6.0 | 0.00 | 0.00 | 0.00 | 89 | 1010.4 |
| 20260505055626 | 71 | 35 | 1.0 | 6.0 | 0.00 | 0.00 | 0.00 | 90 | 1010.4 |
| 20260505055613 | 71 | 158 | 1.0 | 6.0 | 0.00 | 0.00 | 0.00 | 90 | 1010.4 |
| 20260505055527 | 71 | 200 | 1.0 | 6.0 | 0.00 | 0.00 | 0.00 | 90 | 1010.4 |
| 20260505055424 | 71 | 161 | 1.0 | 3.0 | 0.00 | 0.00 | 0.00 | 90 | 1010.4 |
| 20260505055321 | 71 | 61 | 1.0 | 3.0 | 0.00 | 0.00 | 0.00 | 90 | 1010.4 |
| 20260505055221 | 71 | 139 | 1.0 | 4.0 | 0.00 | 0.00 | 0.00 | 90 | 1010.4 |
| 20260505055115 | 71 | 167 | 1.0 | 4.0 | 0.00 | 0.00 | 0.00 | 89 | 1010.4 |
| 20260505055110 | 71 | 193 | 1.0 | 4.0 | 0.00 | 0.00 | 0.00 | 89 | 1010.4 |
| 20260505055014 | 71 | 213 | 1.0 | 4.0 | 0.00 | 0.00 | 0.00 | 89 | 1010.4 |
| 20260505054911 | 71 | 0 | 1.0 | 4.0 | 0.00 | 0.00 | 0.00 | 90 | 1010.4 |
| 20260505054812 | 71 | 190 | 1.0 | 4.0 | 0.00 | 0.00 | 0.00 | 90 | 1010.4 |
| 20260505054711 | 71 | 261 | 1.0 | 4.0 | 0.00 | 0.00 | 0.00 | 89 | 1010.4 |
| 20260505054609 | 71 | 119 | 1.0 | 4.0 | 0.00 | 0.00 | 0.00 | 89 | 1010.4 |
| 20260505054506 | 71 | 184 | 1.0 | 4.0 | 0.00 | 0.00 | 0.00 | 89 | 1010.4 |
| 20260505054405 | 71 | 0 | 1.0 | 4.0 | 0.00 | 0.00 | 0.00 | 90 | 1010.4 |
| 20260505054300 | 71 | 200 | 1.0 | 4.0 | 0.00 | 0.00 | 0.00 | 90 | 1010.4 |
| 20260505054200 | 71 | 192 | 1.0 | 4.0 | 0.00 | 0.00 | 0.00 | 90 | 1010.4 |
| 20260505054107 | 71 | 135 | 1.0 | 4.0 | 0.00 | 0.00 | 0.00 | 89 | 1010.4 |
| 20260505054100 | 71 | 135 | 1.0 | 4.0 | 0.00 | 0.00 | 0.00 | 89 | 1010.4 |
| 20260505053959 | 71 | 202 | 1.0 | 4.0 | 0.00 | 0.00 | 0.00 | 89 | 1010.4 |
| 20260505053857 | 71 | 307 | 1.0 | 4.0 | 0.00 | 0.00 | 0.00 | 89 | 1010.5 |
| 20260505053755 | 71 | 189 | 1.0 | 4.0 | 0.00 | 0.00 | 0.00 | 89 | 1010.5 |
| 20260505053651 | 71 | 170 | 1.0 | 4.0 | 0.00 | 0.00 | 0.00 | 89 | 1010.5 |
| 20260505053608 | 71 | 221 | 1.0 | 5.0 | 0.00 | 0.00 | 0.00 | 89 | 1010.5 |
| 20260505053551 | 71 | 153 | 1.0 | 5.0 | 0.00 | 0.00 | 0.00 | 89 | 1010.5 |
| 20260505053451 | 71 | 190 | 1.0 | 5.0 | 0.00 | 0.00 | 0.00 | 89 | 1010.5 |
| 20260505053351 | 71 | 40 | 1.0 | 5.0 | 0.00 | 0.00 | 0.00 | 89 | 1010.5 |
| 20260505053248 | 70 | 227 | 1.0 | 5.0 | 0.00 | 0.00 | 0.00 | 89 | 1010.5 |
| 20260505053148 | 70 | 194 | 1.0 | 5.0 | 0.00 | 0.00 | 0.00 | 89 | 1010.5 |
| 20260505053105 | 70 | 186 | 1.0 | 5.0 | 0.00 | 0.00 | 0.00 | 89 | 1010.5 |
| 20260505053048 | 70 | 148 | 1.0 | 5.0 | 0.00 | 0.00 | 0.00 | 89 | 1010.5 |
| 20260505052948 | 70 | 186 | 1.0 | 5.0 | 0.00 | 0.00 | 0.00 | 89 | 1010.5 |
| 20260505052839 | 70 | 149 | 1.0 | 5.0 | 0.00 | 0.00 | 0.00 | 89 | 1010.5 |
| 20260505052739 | 70 | 0 | 1.0 | 5.0 | 0.00 | 0.00 | 0.00 | 89 | 1010.5 |
| 20260505052639 | 70 | 188 | 1.0 | 5.0 | 0.00 | 0.00 | 0.00 | 89 | 1010.5 |
| 20260505052605 | 70 | 178 | 1.0 | 4.0 | 0.00 | 0.00 | 0.00 | 89 | 1010.5 |
| 20260505052539 | 70 | 56 | 1.0 | 4.0 | 0.00 | 0.00 | 0.00 | 89 | 1010.5 |
| 20260505052438 | 70 | 89 | 1.0 | 4.0 | 0.00 | 0.00 | 0.00 | 89 | 1010.5 |
| 20260505052336 | 70 | 181 | 1.0 | 4.0 | 0.00 | 0.00 | 0.00 | 89 | 1010.5 |
| 20260505052236 | 70 | 216 | 1.0 | 4.0 | 0.00 | 0.00 | 0.00 | 89 | 1010.5 |
| 20260505052135 | 70 | 0 | 1.0 | 4.0 | 0.00 | 0.00 | 0.00 | 89 | 1010.5 |
| 20260505052105 | 70 | 83 | 1.0 | 4.0 | 0.00 | 0.00 | 0.00 | 89 | 1010.5 |
| 20260505052037 | 70 | 118 | 1.0 | 4.0 | 0.00 | 0.00 | 0.00 | 89 | 1010.5 |
| 20260505051936 | 70 | 0 | 1.0 | 4.0 | 0.00 | 0.00 | 0.00 | 89 | 1010.5 |
| 20260505051827 | 70 | 196 | 1.0 | 4.0 | 0.00 | 0.00 | 0.00 | 89 | 1010.5 |
| 20260505051728 | 70 | 216 | 1.0 | 4.0 | 0.00 | 0.00 | 0.00 | 89 | 1010.5 |
| 20260505051627 | 70 | 0 | 1.0 | 4.0 | 0.00 | 0.00 | 0.00 | 89 | 1010.5 |
| 20260505051602 | 70 | 224 | 1.0 | 4.0 | 0.00 | 0.00 | 0.00 | 89 | 1010.5 |
| 20260505051527 | 70 | 141 | 1.0 | 4.0 | 0.00 | 0.00 | 0.00 | 89 | 1010.5 |
| 20260505051427 | 70 | 185 | 1.0 | 4.0 | 0.00 | 0.00 | 0.00 | 89 | 1010.5 |
| 20260505051327 | 70 | 170 | 1.0 | 4.0 | 0.00 | 0.00 | 0.00 | 89 | 1010.5 |
| 20260505051224 | 70 | 224 | 1.0 | 5.0 | 0.00 | 0.00 | 0.00 | 89 | 1010.5 |
| 20260505051106 | 70 | 192 | 1.0 | 5.0 | 0.00 | 0.00 | 0.00 | 89 | 1010.5 |
| 20260505051059 | 70 | 86 | 1.0 | 5.0 | 0.00 | 0.00 | 0.00 | 89 | 1010.5 |
| 20260505051006 | 70 | 0 | 1.0 | 5.0 | 0.00 | 0.00 | 0.00 | 89 | 1010.5 |
| 20260505050907 | 70 | 47 | 1.0 | 5.0 | 0.00 | 0.00 | 0.00 | 89 | 1010.5 |
| 20260505050828 | 70 | 0 | 1.0 | 5.0 | 0.00 | 0.00 | 0.00 | 89 | 1010.5 |
| 20260505050806 | 70 | 145 | 1.0 | 5.0 | 0.00 | 0.00 | 0.00 | 89 | 1010.5 |
| 20260505050710 | 70 | 271 | 1.0 | 5.0 | 0.00 | 0.00 | 0.00 | 89 | 1010.5 |
| 20260505050705 | 70 | 0 | 1.0 | 5.0 | 0.00 | 0.00 | 0.00 | 89 | 1010.5 |
| 20260505050540 | 70 | 306 | 1.0 | 5.0 | 0.00 | 0.00 | 0.00 | 89 | 1010.5 |
| 20260505050507 | 70 | 157 | 1.0 | 5.0 | 0.00 | 0.00 | 0.00 | 89 | 1010.5 |
| 20260505050426 | 70 | 33 | 1.0 | 5.0 | 0.00 | 0.00 | 0.00 | 89 | 1010.5 |
| 20260505050303 | 70 | 169 | 1.0 | 5.0 | 0.00 | 0.00 | 0.00 | 89 | 1010.5 |
| 20260505050205 | 70 | 182 | 1.0 | 5.0 | 0.00 | 0.00 | 0.00 | 89 | 1010.5 |
| 20260505041728 | 69 | 108 | 1.0 | 2.0 | 0.00 | 0.00 | 0.00 | 89 | 1010.7 |
| 20260505041625 | 69 | 0 | 1.0 | 2.0 | 0.00 | 0.00 | 0.00 | 89 | 1010.7 |
| 20260505041554 | 69 | 135 | 1.0 | 2.0 | 0.00 | 0.00 | 0.00 | 89 | 1010.7 |
| 20260505041524 | 69 | 0 | 1.0 | 2.0 | 0.00 | 0.00 | 0.00 | 89 | 1010.7 |
| 20260505041419 | 69 | 199 | 1.0 | 2.0 | 0.00 | 0.00 | 0.00 | 89 | 1010.7 |
| 20260505041316 | 69 | 113 | 1.0 | 2.0 | 0.00 | 0.00 | 0.00 | 89 | 1010.7 |
| 20260505041211 | 69 | 109 | 1.0 | 4.0 | 0.00 | 0.00 | 0.00 | 89 | 1010.8 |
| 20260505041110 | 69 | 55 | 1.0 | 4.0 | 0.00 | 0.00 | 0.00 | 89 | 1010.8 |
| 20260505041051 | 69 | 240 | 1.0 | 4.0 | 0.00 | 0.00 | 0.00 | 89 | 1010.8 |
| 20260505041010 | 69 | 154 | 1.0 | 4.0 | 0.00 | 0.00 | 0.00 | 89 | 1010.8 |
| 20260505040910 | 69 | 0 | 1.0 | 4.0 | 0.00 | 0.00 | 0.00 | 89 | 1010.9 |
| 20260505040811 | 69 | 87 | 1.0 | 4.0 | 0.00 | 0.00 | 0.00 | 89 | 1010.9 |
| 20260505040710 | 69 | 207 | 1.0 | 4.0 | 0.00 | 0.00 | 0.00 | 89 | 1010.9 |
| 20260505040607 | 69 | 127 | 1.0 | 4.0 | 0.00 | 0.00 | 0.00 | 89 | 1010.9 |
| 20260505040548 | 69 | 100 | 1.0 | 4.0 | 0.00 | 0.00 | 0.00 | 89 | 1010.9 |
| 20260505040507 | 69 | 0 | 1.0 | 4.0 | 0.00 | 0.00 | 0.00 | 89 | 1010.9 |
| 20260505040407 | 69 | 0 | 1.0 | 4.0 | 0.00 | 0.00 | 0.00 | 89 | 1011.0 |
| 20260505040309 | 69 | 0 | 1.0 | 4.0 | 0.00 | 0.00 | 0.00 | 89 | 1011.0 |
| 20260505040202 | 69 | 98 | 1.0 | 2.0 | 0.00 | 0.00 | 0.00 | 89 | 1011.0 |
| 20260505040101 | 69 | 0 | 1.0 | 2.0 | 0.00 | 0.00 | 0.00 | 89 | 1011.0 |
| 20260505040048 | 69 | 40 | 1.0 | 2.0 | 0.00 | 0.00 | 0.00 | 89 | 1011.0 |
| 20260505035959 | 69 | 226 | 1.0 | 2.0 | 0.00 | 0.00 | 0.00 | 89 | 1011.0 |
| 20260505035859 | 69 | 192 | 0.0 | 2.0 | 0.00 | 0.00 | 0.00 | 89 | 1011.0 |
| 20260505035758 | 69 | 69 | 0.0 | 2.0 | 0.00 | 0.00 | 0.00 | 89 | 1011.0 |
| 20260505035659 | 69 | 357 | 0.0 | 2.0 | 0.00 | 0.00 | 0.00 | 89 | 1011.0 |
| 20260505035558 | 69 | 6 | 0.0 | 2.0 | 0.00 | 0.00 | 0.00 | 89 | 1011.0 |
| 20260505035548 | 69 | 284 | 0.0 | 2.0 | 0.00 | 0.00 | 0.00 | 89 | 1011.0 |
| 20260505035459 | 69 | 92 | 0.0 | 2.0 | 0.00 | 0.00 | 0.00 | 89 | 1011.0 |
| 20260505035357 | 69 | 81 | 0.0 | 2.0 | 0.00 | 0.00 | 0.00 | 89 | 1011.0 |
| 20260505035257 | 69 | 0 | 0.0 | 2.0 | 0.00 | 0.00 | 0.00 | 89 | 1011.0 |
| 20260505035157 | 69 | 118 | 0.0 | 2.0 | 0.00 | 0.00 | 0.00 | 88 | 1011.1 |
| 20260505035058 | 69 | 84 | 0.0 | 4.0 | 0.00 | 0.00 | 0.00 | 88 | 1011.1 |
| 20260505035052 | 69 | 0 | 0.0 | 4.0 | 0.00 | 0.00 | 0.00 | 88 | 1011.1 |
| 20260505034955 | 69 | 0 | 1.0 | 4.0 | 0.00 | 0.00 | 0.00 | 88 | 1011.1 |
| 20260505034853 | 69 | 265 | 1.0 | 4.0 | 0.00 | 0.00 | 0.00 | 88 | 1011.1 |
| 20260505034750 | 69 | 183 | 1.0 | 4.0 | 0.00 | 0.00 | 0.00 | 88 | 1011.1 |
| 20260505034647 | 69 | 274 | 1.0 | 4.0 | 0.00 | 0.00 | 0.00 | 88 | 1011.1 |
| 20260505034547 | 69 | 178 | 1.0 | 4.0 | 0.00 | 0.00 | 0.00 | 88 | 1011.1 |
| 20260505034447 | 69 | 0 | 1.0 | 4.0 | 0.00 | 0.00 | 0.00 | 88 | 1011.2 |
| 20260505034347 | 69 | 76 | 1.0 | 4.0 | 0.00 | 0.00 | 0.00 | 88 | 1011.2 |
| 20260505034247 | 69 | 66 | 1.0 | 4.0 | 0.00 | 0.00 | 0.00 | 88 | 1011.2 |
| 20260505034144 | 69 | 250 | 1.0 | 3.0 | 0.00 | 0.00 | 0.00 | 88 | 1011.2 |
| 20260505034048 | 69 | 188 | 1.0 | 2.0 | 0.00 | 0.00 | 0.00 | 88 | 1011.1 |
| 20260505034041 | 69 | 36 | 1.0 | 2.0 | 0.00 | 0.00 | 0.00 | 88 | 1011.1 |
| 20260505033941 | 69 | 165 | 1.0 | 2.0 | 0.00 | 0.00 | 0.00 | 88 | 1011.1 |
| 20260505033834 | 69 | 0 | 1.0 | 2.0 | 0.00 | 0.00 | 0.00 | 88 | 1011.1 |
| 20260505033734 | 69 | 87 | 0.0 | 2.0 | 0.00 | 0.00 | 0.00 | 88 | 1011.1 |
| 20260505033634 | 69 | 288 | 0.0 | 2.0 | 0.00 | 0.00 | 0.00 | 88 | 1011.1 |
| 20260505033548 | 69 | 199 | 0.0 | 2.0 | 0.00 | 0.00 | 0.00 | 88 | 1011.1 |
| 20260505033532 | 69 | 35 | 0.0 | 2.0 | 0.00 | 0.00 | 0.00 | 88 | 1011.1 |
| 20260505033426 | 69 | 50 | 0.0 | 2.0 | 0.00 | 0.00 | 0.00 | 88 | 1011.1 |
| 20260505033326 | 69 | 189 | 0.0 | 2.0 | 0.00 | 0.00 | 0.00 | 88 | 1011.1 |
| 20260505033222 | 69 | 0 | 0.0 | 2.0 | 0.00 | 0.00 | 0.00 | 88 | 1011.1 |
| 20260505033120 | 69 | 87 | 0.0 | 2.0 | 0.00 | 0.00 | 0.00 | 88 | 1011.1 |
| 20260505033043 | 69 | 104 | 0.0 | 2.0 | 0.00 | 0.00 | 0.00 | 88 | 1011.1 |
| 20260505033019 | 69 | 179 | 0.0 | 2.0 | 0.00 | 0.00 | 0.00 | 88 | 1011.1 |
| 20260505032919 | 69 | 0 | 0.0 | 2.0 | 0.00 | 0.00 | 0.00 | 88 | 1011.1 |
| 20260505032817 | 69 | 0 | 0.0 | 3.0 | 0.00 | 0.00 | 0.00 | 88 | 1011.1 |
| 20260505032714 | 69 | 255 | 0.0 | 3.0 | 0.00 | 0.00 | 0.00 | 88 | 1011.1 |
| 20260505032614 | 69 | 0 | 0.0 | 3.0 | 0.00 | 0.00 | 0.00 | 88 | 1011.1 |
| 20260505032542 | 70 | 0 | 0.0 | 3.0 | 0.00 | 0.00 | 0.00 | 88 | 1011.1 |
| 20260505032511 | 70 | 123 | 0.0 | 3.0 | 0.00 | 0.00 | 0.00 | 88 | 1011.1 |
| 20260505032411 | 70 | 205 | 0.0 | 3.0 | 0.00 | 0.00 | 0.00 | 87 | 1011.1 |
| 20260505032311 | 70 | 0 | 0.0 | 3.0 | 0.00 | 0.00 | 0.00 | 87 | 1011.2 |
| 20260505032211 | 70 | 0 | 1.0 | 3.0 | 0.00 | 0.00 | 0.00 | 87 | 1011.1 |
| 20260505032108 | 70 | 272 | 1.0 | 3.0 | 0.00 | 0.00 | 0.00 | 87 | 1011.1 |
| 20260505032043 | 70 | 0 | 1.0 | 3.0 | 0.00 | 0.00 | 0.00 | 87 | 1011.1 |
| 20260505032005 | 70 | 288 | 1.0 | 3.0 | 0.00 | 0.00 | 0.00 | 87 | 1011.1 |
| 20260505031858 | 70 | 51 | 1.0 | 3.0 | 0.00 | 0.00 | 0.00 | 87 | 1011.1 |
| 20260505031759 | 70 | 86 | 1.0 | 2.0 | 0.00 | 0.00 | 0.00 | 87 | 1011.1 |
| 20260505031659 | 70 | 293 | 1.0 | 2.0 | 0.00 | 0.00 | 0.00 | 87 | 1011.1 |
| 20260505031559 | 70 | 65 | 1.0 | 2.0 | 0.00 | 0.00 | 0.00 | 87 | 1011.1 |
| 20260505031542 | 70 | 0 | 1.0 | 2.0 | 0.00 | 0.00 | 0.00 | 87 | 1011.1 |
| 20260505031456 | 70 | 69 | 1.0 | 2.0 | 0.00 | 0.00 | 0.00 | 87 | 1011.1 |
| 20260505031353 | 70 | 78 | 1.0 | 2.0 | 0.00 | 0.00 | 0.00 | 87 | 1011.1 |
| 20260505031253 | 70 | 92 | 1.0 | 3.0 | 0.00 | 0.00 | 0.00 | 87 | 1011.1 |
| 20260505031153 | 70 | 99 | 0.0 | 3.0 | 0.00 | 0.00 | 0.00 | 87 | 1011.1 |
| 20260505031042 | 70 | 0 | 0.0 | 3.0 | 0.00 | 0.00 | 0.00 | 87 | 1011.1 |
| 20260505030950 | 70 | 144 | 1.0 | 3.0 | 0.00 | 0.00 | 0.00 | 87 | 1011.1 |
| 20260505030841 | 70 | 164 | 1.0 | 3.0 | 0.00 | 0.00 | 0.00 | 87 | 1011.1 |
| 20260505030735 | 70 | 0 | 1.0 | 3.0 | 0.00 | 0.00 | 0.00 | 87 | 1011.1 |
| 20260505030632 | 70 | 192 | 1.0 | 3.0 | 0.00 | 0.00 | 0.00 | 87 | 1011.1 |
| 20260505030532 | 70 | 0 | 1.0 | 3.0 | 0.00 | 0.00 | 0.00 | 87 | 1011.1 |
| 20260505030433 | 70 | 127 | 1.0 | 3.0 | 0.00 | 0.00 | 0.00 | 87 | 1011.1 |
| 20260505030331 | 70 | 0 | 1.0 | 3.0 | 0.00 | 0.00 | 0.00 | 87 | 1011.1 |
| 20260505030231 | 70 | 156 | 1.0 | 3.0 | 0.00 | 0.00 | 0.00 | 87 | 1011.1 |
| 20260505030128 | 70 | 344 | 1.0 | 3.0 | 0.00 | 0.00 | 0.00 | 87 | 1011.1 |
| 20260505030037 | 70 | 181 | 0.0 | 3.0 | 0.00 | 0.00 | 0.00 | 86 | 1011.1 |
| 20260505030030 | 70 | 211 | 0.0 | 3.0 | 0.00 | 0.00 | 0.00 | 86 | 1011.1 |
| 20260505025930 | 70 | 68 | 0.0 | 3.0 | 0.00 | 0.00 | 0.00 | 86 | 1011.1 |
| 20260505025829 | 70 | 137 | 0.0 | 2.0 | 0.00 | 0.00 | 0.00 | 86 | 1011.0 |
| 20260505025753 | 70 | 0 | 0.0 | 2.0 | 0.00 | 0.00 | 0.00 | 86 | 1011.1 |
| 20260505025730 | 70 | 69 | 0.0 | 2.0 | 0.00 | 0.00 | 0.00 | 86 | 1011.0 |
| 20260505025639 | 70 | 95 | 0.0 | 2.0 | 0.00 | 0.00 | 0.00 | 86 | 1011.1 |
| 20260505025525 | 70 | 0 | 0.0 | 2.0 | 0.00 | 0.00 | 0.00 | 86 | 1011.1 |
| 20260505025517 | 70 | 0 | 1.0 | 3.0 | 0.00 | 0.00 | 0.00 | 86 | 1011.1 |
| 20260505025426 | 70 | 209 | 0.0 | 3.0 | 0.00 | 0.00 | 0.00 | 86 | 1011.1 |
| 20260505025404 | 70 | 75 | 0.0 | 3.0 | 0.00 | 0.00 | 0.00 | 86 | 1011.1 |
| 20260505025216 | 70 | 233 | 0.0 | 3.0 | 0.00 | 0.00 | 0.00 | 86 | 1011.1 |
| 20260505025140 | 70 | 0 | 0.0 | 3.0 | 0.00 | 0.00 | 0.00 | 86 | 1011.1 |
| 20260505025017 | 70 | 245 | 1.0 | 3.0 | 0.00 | 0.00 | 0.00 | 86 | 1011.1 |
| 20260505024917 | 70 | 0 | 1.0 | 3.0 | 0.00 | 0.00 | 0.00 | 86 | 1011.1 |
| 20260505024817 | 70 | 188 | 1.0 | 3.0 | 0.00 | 0.00 | 0.00 | 86 | 1011.1 |
| 20260505024717 | 70 | 188 | 1.0 | 3.0 | 0.00 | 0.00 | 0.00 | 85 | 1011.2 |
| 20260505024617 | 70 | 0 | 1.0 | 3.0 | 0.00 | 0.00 | 0.00 | 85 | 1011.2 |
| 20260505024533 | 70 | 0 | 1.0 | 3.0 | 0.00 | 0.00 | 0.00 | 85 | 1011.2 |
| 20260505024517 | 70 | 281 | 1.0 | 3.0 | 0.00 | 0.00 | 0.00 | 85 | 1011.2 |
| 20260505024414 | 70 | 229 | 1.0 | 3.0 | 0.00 | 0.00 | 0.00 | 85 | 1011.2 |
| 20260505024314 | 70 | 188 | 1.0 | 3.0 | 0.00 | 0.00 | 0.00 | 85 | 1011.2 |
| 20260505024214 | 70 | 86 | 1.0 | 3.0 | 0.00 | 0.00 | 0.00 | 85 | 1011.2 |
| 20260505024114 | 70 | 226 | 1.0 | 3.0 | 0.00 | 0.00 | 0.00 | 85 | 1011.2 |
| 20260505024033 | 70 | 0 | 1.0 | 3.0 | 0.00 | 0.00 | 0.00 | 85 | 1011.2 |
| 20260505024014 | 70 | 247 | 1.0 | 3.0 | 0.00 | 0.00 | 0.00 | 85 | 1011.2 |
| 20260505023914 | 70 | 183 | 1.0 | 3.0 | 0.00 | 0.00 | 0.00 | 85 | 1011.2 |
| 20260505023814 | 71 | 0 | 1.0 | 3.0 | 0.00 | 0.00 | 0.00 | 85 | 1011.1 |
| 20260505023714 | 71 | 137 | 1.0 | 3.0 | 0.00 | 0.00 | 0.00 | 85 | 1011.1 |
| 20260505023614 | 71 | 0 | 1.0 | 3.0 | 0.00 | 0.00 | 0.00 | 85 | 1011.1 |
| 20260505023535 | 71 | 179 | 1.0 | 3.0 | 0.00 | 0.00 | 0.00 | 85 | 1011.1 |
| 20260505023514 | 71 | 229 | 1.0 | 3.0 | 0.00 | 0.00 | 0.00 | 85 | 1011.1 |
| 20260505023415 | 71 | 247 | 1.0 | 3.0 | 0.00 | 0.00 | 0.00 | 85 | 1011.1 |
| 20260505023315 | 71 | 162 | 1.0 | 3.0 | 0.00 | 0.00 | 0.00 | 85 | 1011.1 |
| 20260505023214 | 71 | 77 | 1.0 | 3.0 | 0.00 | 0.00 | 0.00 | 85 | 1011.1 |
| 20260505023114 | 71 | 215 | 1.0 | 3.0 | 0.00 | 0.00 | 0.00 | 85 | 1011.1 |
| 20260505023031 | 71 | 159 | 0.0 | 3.0 | 0.00 | 0.00 | 0.00 | 85 | 1011.1 |
| 20260505023015 | 71 | 109 | 0.0 | 3.0 | 0.00 | 0.00 | 0.00 | 85 | 1011.1 |
| 20260505022915 | 71 | 0 | 0.0 | 3.0 | 0.00 | 0.00 | 0.00 | 85 | 1011.1 |
| 20260505022814 | 71 | 80 | 0.0 | 3.0 | 0.00 | 0.00 | 0.00 | 85 | 1011.1 |
| 20260505022751 | 71 | 225 | 0.0 | 2.0 | 0.00 | 0.00 | 0.00 | 84 | 1011.0 |
| 20260505022714 | 71 | 99 | 0.0 | 2.0 | 0.00 | 0.00 | 0.00 | 84 | 1011.1 |
| 20260505022634 | 71 | 62 | 0.0 | 2.0 | 0.00 | 0.00 | 0.00 | 84 | 1011.0 |
| 20260505022515 | 71 | 243 | 0.0 | 2.0 | 0.00 | 0.00 | 0.00 | 84 | 1011.0 |
| 20260505022414 | 71 | 19 | 0.0 | 2.0 | 0.00 | 0.00 | 0.00 | 84 | 1011.0 |
| 20260505022315 | 71 | 192 | 0.0 | 2.0 | 0.00 | 0.00 | 0.00 | 84 | 1011.0 |
| 20260505022215 | 71 | 119 | 0.0 | 2.0 | 0.00 | 0.00 | 0.00 | 84 | 1011.0 |
| 20260505022115 | 71 | 42 | 0.0 | 2.0 | 0.00 | 0.00 | 0.00 | 84 | 1011.0 |
| 20260505022028 | 71 | 142 | 0.0 | 2.0 | 0.00 | 0.00 | 0.00 | 84 | 1011.0 |
| 20260505022015 | 71 | 179 | 0.0 | 2.0 | 0.00 | 0.00 | 0.00 | 84 | 1011.0 |
| 20260505021911 | 71 | 128 | 1.0 | 4.0 | 0.00 | 0.00 | 0.00 | 84 | 1011.0 |
| 20260505021809 | 71 | 0 | 1.0 | 4.0 | 0.00 | 0.00 | 0.00 | 84 | 1011.0 |
| 20260505021706 | 71 | 136 | 1.0 | 4.0 | 0.00 | 0.00 | 0.00 | 83 | 1011.1 |
| 20260505021606 | 71 | 92 | 1.0 | 4.0 | 0.00 | 0.00 | 0.00 | 83 | 1011.0 |
| 20260505021529 | 71 | 0 | 1.0 | 4.0 | 0.00 | 0.00 | 0.00 | 83 | 1011.0 |
| 20260505021507 | 71 | 73 | 1.0 | 4.0 | 0.00 | 0.00 | 0.00 | 83 | 1011.0 |
| 20260505021406 | 71 | 23 | 1.0 | 4.0 | 0.00 | 0.00 | 0.00 | 83 | 1011.0 |
| 20260505021306 | 71 | 89 | 1.0 | 4.0 | 0.00 | 0.00 | 0.00 | 83 | 1011.0 |
| 20260505021206 | 72 | 44 | 1.0 | 4.0 | 0.00 | 0.00 | 0.00 | 83 | 1011.0 |
| 20260505021103 | 72 | 250 | 1.0 | 4.0 | 0.00 | 0.00 | 0.00 | 83 | 1011.0 |
| 20260505021025 | 72 | 220 | 1.0 | 4.0 | 0.00 | 0.00 | 0.00 | 83 | 1011.0 |
| 20260505021000 | 72 | 144 | 1.0 | 4.0 | 0.00 | 0.00 | 0.00 | 83 | 1011.0 |
| 20260505020859 | 72 | 194 | 1.0 | 4.0 | 0.00 | 0.00 | 0.00 | 83 | 1011.0 |
| 20260505020757 | 72 | 278 | 1.0 | 4.0 | 0.00 | 0.00 | 0.00 | 82 | 1010.9 |
| 20260505020657 | 72 | 89 | 1.0 | 4.0 | 0.00 | 0.00 | 0.00 | 82 | 1010.9 |
| 20260505020557 | 72 | 168 | 1.0 | 4.0 | 0.00 | 0.00 | 0.00 | 82 | 1010.9 |
| 20260505020526 | 72 | 115 | 1.0 | 4.0 | 0.00 | 0.00 | 0.00 | 82 | 1010.9 |
| 20260505020454 | 72 | 182 | 1.0 | 4.0 | 0.00 | 0.00 | 0.00 | 82 | 1011.0 |
| 20260505020354 | 72 | 217 | 1.0 | 4.0 | 0.00 | 0.00 | 0.00 | 82 | 1011.0 |
| 20260505020254 | 72 | 170 | 1.0 | 4.0 | 0.00 | 0.00 | 0.00 | 82 | 1010.9 |
| 20260505020151 | 72 | 152 | 1.0 | 4.0 | 0.00 | 0.00 | 0.00 | 82 | 1010.8 |
| 20260505020039 | 72 | 203 | 1.0 | 4.0 | 0.00 | 0.00 | 0.00 | 82 | 1010.8 |
| 20260505020023 | 72 | 289 | 1.0 | 4.0 | 0.00 | 0.00 | 0.00 | 82 | 1010.8 |
| 20260505015936 | 72 | 100 | 1.0 | 7.0 | 0.00 | 0.00 | 0.00 | 82 | 1010.8 |
| 20260505015833 | 72 | 205 | 1.0 | 7.0 | 0.00 | 0.00 | 0.00 | 81 | 1010.7 |
| 20260505015730 | 72 | 94 | 1.0 | 7.0 | 0.00 | 0.00 | 0.00 | 81 | 1010.7 |
| 20260505015631 | 72 | 291 | 1.0 | 7.0 | 0.00 | 0.00 | 0.00 | 81 | 1010.7 |
| 20260505015524 | 72 | 64 | 1.0 | 7.0 | 0.00 | 0.00 | 0.00 | 81 | 1010.7 |
| 20260505015419 | 72 | 187 | 1.0 | 7.0 | 0.00 | 0.00 | 0.00 | 81 | 1010.7 |
| 20260505015316 | 72 | 64 | 1.0 | 7.0 | 0.00 | 0.00 | 0.00 | 81 | 1010.7 |
| 20260505015216 | 72 | 0 | 1.0 | 7.0 | 0.00 | 0.00 | 0.00 | 81 | 1010.7 |
| 20260505015100 | 72 | 141 | 2.0 | 7.0 | 0.00 | 0.00 | 0.00 | 81 | 1010.7 |
| 20260505015023 | 72 | 264 | 2.0 | 7.0 | 0.00 | 0.00 | 0.00 | 81 | 1010.7 |
| 20260505014955 | 72 | 133 | 2.0 | 6.0 | 0.00 | 0.00 | 0.00 | 81 | 1010.7 |
| 20260505014854 | 73 | 92 | 1.0 | 5.0 | 0.00 | 0.00 | 0.00 | 81 | 1010.7 |
| 20260505014751 | 73 | 77 | 1.0 | 5.0 | 0.00 | 0.00 | 0.00 | 81 | 1010.8 |
| 20260505014745 | 73 | 158 | 1.0 | 3.0 | 0.00 | 0.00 | 0.00 | 81 | 1010.8 |
| 20260505014648 | 73 | 185 | 1.0 | 4.0 | 0.00 | 0.00 | 0.00 | 81 | 1010.8 |
| 20260505014629 | 73 | 80 | 1.0 | 3.0 | 0.00 | 0.00 | 0.00 | 81 | 1010.8 |
| 20260505014445 | 73 | 234 | 1.0 | 3.0 | 0.00 | 0.00 | 0.00 | 81 | 1010.8 |
| 20260505014342 | 73 | 172 | 1.0 | 3.0 | 0.00 | 0.00 | 0.00 | 81 | 1010.7 |
| 20260505014242 | 73 | 194 | 1.0 | 3.0 | 0.00 | 0.00 | 0.00 | 81 | 1010.7 |
| 20260505014142 | 73 | 50 | 1.0 | 3.0 | 0.00 | 0.00 | 0.00 | 81 | 1010.7 |
| 20260505014039 | 73 | 320 | 1.0 | 4.0 | 0.00 | 0.00 | 0.00 | 81 | 1010.7 |
| 20260505014020 | 73 | 264 | 1.0 | 4.0 | 0.00 | 0.00 | 0.00 | 81 | 1010.7 |
| 20260505013937 | 73 | 126 | 1.0 | 4.0 | 0.00 | 0.00 | 0.00 | 81 | 1010.8 |
| 20260505013830 | 73 | 156 | 1.0 | 5.0 | 0.00 | 0.00 | 0.00 | 81 | 1010.8 |
| 20260505013725 | 73 | 252 | 1.0 | 5.0 | 0.00 | 0.00 | 0.00 | 81 | 1010.8 |
| 20260505013620 | 73 | 176 | 1.0 | 5.0 | 0.00 | 0.00 | 0.00 | 81 | 1010.8 |
| 20260505013513 | 73 | 285 | 1.0 | 5.0 | 0.00 | 0.00 | 0.00 | 81 | 1010.7 |
| 20260505013409 | 73 | 161 | 1.0 | 5.0 | 0.00 | 0.00 | 0.00 | 80 | 1010.7 |
| 20260505013306 | 73 | 56 | 1.0 | 5.0 | 0.00 | 0.00 | 0.00 | 80 | 1010.7 |
| 20260505013207 | 73 | 59 | 1.0 | 5.0 | 0.00 | 0.00 | 0.00 | 80 | 1010.7 |
| 20260505013106 | 73 | 139 | 1.0 | 5.0 | 0.00 | 0.00 | 0.00 | 80 | 1010.8 |
| 20260505013011 | 73 | 170 | 2.0 | 5.0 | 0.00 | 0.00 | 0.00 | 80 | 1010.8 |
| 20260505013007 | 73 | 174 | 2.0 | 5.0 | 0.00 | 0.00 | 0.00 | 80 | 1010.8 |
| 20260505012906 | 73 | 169 | 1.0 | 5.0 | 0.00 | 0.00 | 0.00 | 80 | 1010.8 |
| 20260505012806 | 73 | 187 | 1.0 | 5.0 | 0.00 | 0.00 | 0.00 | 80 | 1010.9 |
| 20260505012706 | 73 | 227 | 2.0 | 5.0 | 0.00 | 0.00 | 0.00 | 80 | 1010.9 |
| 20260505012606 | 73 | 86 | 1.0 | 5.0 | 0.00 | 0.00 | 0.00 | 80 | 1010.9 |
| 20260505012505 | 73 | 92 | 2.0 | 5.0 | 0.00 | 0.00 | 0.00 | 80 | 1010.9 |
| 20260505012501 | 73 | 114 | 2.0 | 5.0 | 0.00 | 0.00 | 0.00 | 80 | 1010.9 |
| 20260505012400 | 73 | 275 | 2.0 | 5.0 | 0.00 | 0.00 | 0.00 | 80 | 1010.9 |
| 20260505012300 | 73 | 168 | 2.0 | 5.0 | 0.00 | 0.00 | 0.00 | 80 | 1010.9 |
| 20260505012159 | 73 | 156 | 2.0 | 5.0 | 0.00 | 0.00 | 0.00 | 80 | 1010.9 |
| 20260505012059 | 73 | 95 | 2.0 | 4.0 | 0.00 | 0.00 | 0.00 | 80 | 1010.9 |
| 20260505012005 | 73 | 160 | 2.0 | 4.0 | 0.00 | 0.00 | 0.00 | 80 | 1010.9 |
| 20260505011959 | 73 | 262 | 2.0 | 4.0 | 0.00 | 0.00 | 0.00 | 80 | 1010.9 |
| 20260505011859 | 73 | 239 | 2.0 | 4.0 | 0.00 | 0.00 | 0.00 | 80 | 1010.9 |
| 20260505011755 | 73 | 89 | 2.0 | 4.0 | 0.00 | 0.00 | 0.00 | 80 | 1010.9 |
| 20260505011652 | 73 | 204 | 2.0 | 4.0 | 0.00 | 0.00 | 0.00 | 80 | 1010.9 |
| 20260505011549 | 73 | 168 | 2.0 | 4.0 | 0.00 | 0.00 | 0.00 | 80 | 1010.8 |
| 20260505011457 | 73 | 149 | 2.0 | 4.0 | 0.00 | 0.00 | 0.00 | 80 | 1010.7 |
| 20260505011446 | 73 | 203 | 2.0 | 5.0 | 0.00 | 0.00 | 0.00 | 80 | 1010.7 |
| 20260505011343 | 73 | 186 | 2.0 | 5.0 | 0.00 | 0.00 | 0.00 | 80 | 1010.7 |
| 20260505011240 | 73 | 53 | 2.0 | 5.0 | 0.00 | 0.00 | 0.00 | 79 | 1010.7 |
| 20260505011140 | 73 | 346 | 2.0 | 5.0 | 0.00 | 0.00 | 0.00 | 79 | 1010.7 |
| 20260505011037 | 73 | 81 | 2.0 | 5.0 | 0.00 | 0.00 | 0.00 | 79 | 1010.6 |
| 20260505010958 | 73 | 137 | 2.0 | 5.0 | 0.00 | 0.00 | 0.00 | 79 | 1010.6 |
| 20260505010937 | 73 | 113 | 2.0 | 5.0 | 0.00 | 0.00 | 0.00 | 79 | 1010.6 |
| 20260505010837 | 73 | 209 | 2.0 | 5.0 | 0.00 | 0.00 | 0.00 | 79 | 1010.7 |
| 20260505010733 | 73 | 188 | 2.0 | 5.0 | 0.00 | 0.00 | 0.00 | 79 | 1010.7 |
| 20260505010630 | 73 | 0 | 2.0 | 5.0 | 0.00 | 0.00 | 0.00 | 79 | 1010.7 |
| 20260505010528 | 73 | 182 | 2.0 | 5.0 | 0.00 | 0.00 | 0.00 | 79 | 1010.7 |
| 20260505010455 | 73 | 93 | 2.0 | 5.0 | 0.00 | 0.00 | 0.00 | 79 | 1010.8 |
| 20260505010422 | 73 | 193 | 2.0 | 5.0 | 0.00 | 0.00 | 0.00 | 79 | 1010.8 |
| 20260505010310 | 73 | 175 | 2.0 | 5.0 | 0.00 | 0.00 | 0.00 | 79 | 1010.8 |
| 20260505010210 | 73 | 141 | 2.0 | 4.0 | 0.00 | 0.00 | 0.00 | 79 | 1010.8 |
| 20260505010107 | 73 | 286 | 2.0 | 5.0 | 0.00 | 0.00 | 0.00 | 79 | 1010.8 |
| 20260505010004 | 74 | 203 | 2.0 | 5.0 | 0.00 | 0.00 | 0.00 | 79 | 1010.8 |
| 20260505005951 | 74 | 8 | 2.0 | 5.0 | 0.00 | 0.00 | 0.00 | 79 | 1010.8 |
| 20260505005904 | 74 | 169 | 2.0 | 5.0 | 0.00 | 0.00 | 0.00 | 79 | 1010.8 |
| 20260505005801 | 74 | 174 | 2.0 | 5.0 | 0.00 | 0.00 | 0.00 | 79 | 1010.8 |